PORTS® Data Listing: 8775237 Port Aransas, TX

CO-OPS RAW PORTS DATA

************************      PRELIMINARY DATA      ************************** 

     THIS RAW DATA HAS NOT BEEN SUBJECT TO THE NATIONAL OCEAN SERVICE'S        
     QUALITY CONTROL OR QUALITY ASSURANCE PROCEDURES AND DOES NOT MEET         
     THE CRITERIA AND STANDARDS OF OFFICIAL NATIONAL OCEAN SERVICE             
     DATA.  IT IS RELEASED FOR LIMITED PUBLIC USE AS PRELIMINARY DATA TO       
     BE USED ONLY WITH APPROPRIATE CAUTION.                                    

************************      PRELIMINARY DATA      ************************** 


       CD   -   Calendar date
       T    -   Time
       TZ   -   Timezone
       PW   -   Predicted water level (feet above MLLW)
       OW   -   Observed water level (feet above MLLW)
       WS   -   Wind speed (knots)
       WD   -   Wind direction (degrees true)
       WG   -   Wind gust (knots)
       AT   -   Air temperature (degrees farenheit)
       WT   -   Water temperature (degrees farenheit)
       AP   -   Air pressure (millibars)
       SA   -   Salinty (PSU - Practical Salinity Units)
       SG   -   Specific gravity
       RH   -   Relative humidity
       AG   -   Air gap (feet)
       VI   -   Visibility (nautical miles)

       ** NOTE **
       A variable that has its data fields filled with "9"s, indicates that
       data was not collected for that sample period.
       **********


STATION NAME: Port Aransas (8775237)
****************************************************************************************************
    CD       T    TZ    PW     OW    WS   WD   WG    AT    WT    AP    SA    SG     RH    AG   VI
****************************************************************************************************
2020/02/16 14:54 CST    1.04   1.50    5   76    6  68.5  62.4 1014.7 -9.9 -9.999 -99.9 -99.99 -9.99
2020/02/16 15:00 CST    1.04   1.51    7   61    7  68.2  62.4 1014.6 -9.9 -9.999 -99.9 -99.99 -9.99
2020/02/16 15:06 CST    1.04   1.50    7   64    8  68.0  62.4 1014.5 -9.9 -9.999 -99.9 -99.99 -9.99
2020/02/16 15:12 CST    1.03   1.51    7   78    8  67.8  62.4 1014.4 -9.9 -9.999 -99.9 -99.99 -9.99
2020/02/16 15:18 CST    1.03   1.47    7   82    8  67.3  62.4 1014.4 -9.9 -9.999 -99.9 -99.99 -9.99
2020/02/16 15:24 CST    1.03   1.46    8   84    9  66.6  62.4 1014.3 -9.9 -9.999 -99.9 -99.99 -9.99
2020/02/16 15:30 CST    1.03   1.50    6   94    9  66.7  62.4 1014.2 -9.9 -9.999 -99.9 -99.99 -9.99
2020/02/16 15:36 CST    1.02   1.54    8   91   10  66.4  62.6 1014.1 -9.9 -9.999 -99.9 -99.99 -9.99
2020/02/16 15:42 CST    1.02   1.51    5  101    9  67.1  62.6 1014.2 -9.9 -9.999 -99.9 -99.99 -9.99
2020/02/16 15:48 CST    1.02   1.54    8   94   10  66.7  62.6 1014.2 -9.9 -9.999 -99.9 -99.99 -9.99
2020/02/16 15:54 CST    1.02   1.51    9  104   11  66.2  62.6 1014.3 -9.9 -9.999 -99.9 -99.99 -9.99
2020/02/16 16:00 CST    1.01   1.55    8  103   12  66.0  62.6 1014.2 -9.9 -9.999 -99.9 -99.99 -9.99
2020/02/16 16:06 CST    1.01   1.53    7   92   11  66.6  62.6 1014.3 -9.9 -9.999 -99.9 -99.99 -9.99
2020/02/16 16:12 CST    1.01   1.57    8   92   10  66.4  62.6 1014.3 -9.9 -9.999 -99.9 -99.99 -9.99
2020/02/16 16:18 CST    1.00   1.57    8   85    9  65.8  62.6 1014.4 -9.9 -9.999 -99.9 -99.99 -9.99
2020/02/16 16:24 CST    1.00   1.56    6   88    9  65.8  62.6 1014.4 -9.9 -9.999 -99.9 -99.99 -9.99
2020/02/16 16:30 CST    1.00   1.54    8   84   10  66.0  62.6 1014.3 -9.9 -9.999 -99.9 -99.99 -9.99
2020/02/16 16:36 CST    0.99   1.51    9  100   11  66.2  62.8 1014.2 -9.9 -9.999 -99.9 -99.99 -9.99
2020/02/16 16:42 CST    0.99   1.47    8  103   12  66.2  62.8 1014.2 -9.9 -9.999 -99.9 -99.99 -9.99
2020/02/16 16:48 CST    0.99   1.44    9  103   11  66.4  62.8 1014.0 -9.9 -9.999 -99.9 -99.99 -9.99
2020/02/16 16:54 CST    0.98   1.46   11  104   13  66.4  62.8 1013.8 -9.9 -9.999 -99.9 -99.99 -9.99
2020/02/16 17:00 CST    0.98   1.46    8  106   13  66.6  62.8 1013.8 -9.9 -9.999 -99.9 -99.99 -9.99
2020/02/16 17:06 CST    0.98   1.48    7   99   12  66.6  62.8 1013.8 -9.9 -9.999 -99.9 -99.99 -9.99
2020/02/16 17:12 CST    0.98   1.48    7   89   11  66.0  62.8 1013.9 -9.9 -9.999 -99.9 -99.99 -9.99
2020/02/16 17:18 CST    0.97   1.47    7   87   10  65.3  62.8 1013.9 -9.9 -9.999 -99.9 -99.99 -9.99
2020/02/16 17:24 CST    0.97   1.45    7   92   10  65.1  62.8 1013.9 -9.9 -9.999 -99.9 -99.99 -9.99
2020/02/16 17:30 CST    0.97   1.46    7   89   10  64.9  62.8 1013.9 -9.9 -9.999 -99.9 -99.99 -9.99
2020/02/16 17:36 CST    0.96   1.49    8   89   11  65.1  62.8 1013.8 -9.9 -9.999 -99.9 -99.99 -9.99
2020/02/16 17:42 CST    0.96   1.48    7   75    9  64.9  62.8 1014.0 -9.9 -9.999 -99.9 -99.99 -9.99
2020/02/16 17:48 CST    0.96   1.50    6   83    9  65.1  62.8 1014.1 -9.9 -9.999 -99.9 -99.99 -9.99
2020/02/16 17:54 CST    0.96   1.49    7   85   10  65.1  62.8 1014.0 -9.9 -9.999 -99.9 -99.99 -9.99
2020/02/16 18:00 CST    0.95   1.47    6   83   10  64.8  62.8 1014.0 -9.9 -9.999 -99.9 -99.99 -9.99
2020/02/16 18:06 CST    0.95   1.62    7   79    9  64.8  62.8 1014.1 -9.9 -9.999 -99.9 -99.99 -9.99
2020/02/16 18:12 CST    0.95   1.52    6   91    9  64.8  62.8 1014.0 -9.9 -9.999 -99.9 -99.99 -9.99
2020/02/16 18:18 CST    0.95   1.39    7   92   10  64.9  63.0 1013.9 -9.9 -9.999 -99.9 -99.99 -9.99
2020/02/16 18:24 CST    0.94   1.45    8  102   11  64.8  63.0 1013.8 -9.9 -9.999 -99.9 -99.99 -9.99
2020/02/16 18:30 CST    0.94   1.48    8  102   12  64.8  63.0 1013.8 -9.9 -9.999 -99.9 -99.99 -9.99
2020/02/16 18:36 CST    0.94   1.47    7  103   12  64.8  63.0 1013.8 -9.9 -9.999 -99.9 -99.99 -9.99
2020/02/16 18:42 CST    0.94   1.50    8  102   10  64.8  63.0 1013.6 -9.9 -9.999 -99.9 -99.99 -9.99
2020/02/16 18:48 CST    0.94   1.53    8  109   11  64.8  63.0 1013.5 -9.9 -9.999 -99.9 -99.99 -9.99
2020/02/16 18:54 CST    0.94   1.45    8  107   12  64.9  63.0 1013.5 -9.9 -9.999 -99.9 -99.99 -9.99
2020/02/16 19:00 CST    0.93   1.46    9  107   13  64.9  63.0 1013.6 -9.9 -9.999 -99.9 -99.99 -9.99
2020/02/16 19:06 CST    0.93   1.47    8  106   13  64.9  63.0 1013.7 -9.9 -9.999 -99.9 -99.99 -9.99
2020/02/16 19:12 CST    0.93   1.47    8  108   11  64.9  63.0 1013.8 -9.9 -9.999 -99.9 -99.99 -9.99
2020/02/16 19:18 CST    0.93   1.49    8  101   11  64.9  63.0 1013.9 -9.9 -9.999 -99.9 -99.99 -9.99
2020/02/16 19:24 CST    0.93   1.47    6  100   10  64.9  63.0 1013.9 -9.9 -9.999 -99.9 -99.99 -9.99
2020/02/16 19:30 CST    0.93   1.48    8   91   10  65.1  63.0 1014.1 -9.9 -9.999 -99.9 -99.99 -9.99
2020/02/16 19:36 CST    0.92   1.50    8   96   11  65.1  63.0 1014.1 -9.9 -9.999 -99.9 -99.99 -9.99
2020/02/16 19:42 CST    0.92   1.51    7   99   11  65.3  63.0 1014.3 -9.9 -9.999 -99.9 -99.99 -9.99
2020/02/16 19:48 CST    0.92   1.48    7   96   12  65.3  63.1 1014.4 -9.9 -9.999 -99.9 -99.99 -9.99
2020/02/16 19:54 CST    0.92   1.50    8   93   12  65.5  63.1 1014.6 -9.9 -9.999 -99.9 -99.99 -9.99
2020/02/16 20:00 CST    0.92   1.46    8   91   11  65.5  63.1 1014.7 -9.9 -9.999 -99.9 -99.99 -9.99
2020/02/16 20:06 CST    0.91   1.43    8   89   10  65.3  63.1 1014.8 -9.9 -9.999 -99.9 -99.99 -9.99
2020/02/16 20:12 CST    0.91   1.42    7   86   10  65.3  63.1 1014.8 -9.9 -9.999 -99.9 -99.99 -9.99
2020/02/16 20:18 CST    0.90   1.42    7   88    9  64.9  63.1 1014.8 -9.9 -9.999 -99.9 -99.99 -9.99
2020/02/16 20:24 CST    0.90   1.42    6   84    9  64.8  63.1 1014.9 -9.9 -9.999 -99.9 -99.99 -9.99
2020/02/16 20:30 CST    0.89   1.41    8   93   11  64.8  63.1 1014.9 -9.9 -9.999 -99.9 -99.99 -9.99
2020/02/16 20:36 CST    0.89   1.40    7   96   11  65.1  63.1 1014.8 -9.9 -9.999 -99.9 -99.99 -9.99
2020/02/16 20:42 CST    0.88   1.38    8   98   12  65.1  63.1 1014.8 -9.9 -9.999 -99.9 -99.99 -9.99
2020/02/16 20:48 CST    0.87   1.36    8  105   12  65.1  63.1 1014.6 -9.9 -9.999 -99.9 -99.99 -9.99
2020/02/16 20:54 CST    0.87   1.36    7  105   10  65.1  63.1 1014.6 -9.9 -9.999 -99.9 -99.99 -9.99
2020/02/16 21:00 CST    0.86   1.36    7  105   10  65.1  63.1 1014.6 -9.9 -9.999 -99.9 -99.99 -9.99
2020/02/16 21:06 CST    0.85   1.36    8  101   11  65.1  63.1 1014.6 -9.9 -9.999 -99.9 -99.99 -9.99
2020/02/16 21:12 CST    0.84   1.37    7  103   10  64.9  63.1 1014.7 -9.9 -9.999 -99.9 -99.99 -9.99
2020/02/16 21:18 CST    0.83   1.37    8  106   11  64.8  63.1 1014.7 -9.9 -9.999 -99.9 -99.99 -9.99
2020/02/16 21:24 CST    0.82   1.34    8  109   11  64.9  63.1 1014.7 -9.9 -9.999 -99.9 -99.99 -9.99
2020/02/16 21:30 CST    0.81   1.32    7  113   12  64.8  63.1 1014.7 -9.9 -9.999 -99.9 -99.99 -9.99
2020/02/16 21:36 CST    0.80   1.32    8  111   13  64.9  63.1 1014.7 -9.9 -9.999 -99.9 -99.99 -9.99
2020/02/16 21:42 CST    0.78   1.31   10  114   14  65.5  63.1 1014.6 -9.9 -9.999 -99.9 -99.99 -9.99
2020/02/16 21:48 CST    0.77   1.29    8  114   13  65.8  63.1 1014.6 -9.9 -9.999 -99.9 -99.99 -9.99
2020/02/16 21:54 CST    0.76   1.28    7  115   10  65.8  63.1 1014.4 -9.9 -9.999 -99.9 -99.99 -9.99
2020/02/16 22:00 CST    0.74   1.29    8  108   11  65.3  63.1 1014.4 -9.9 -9.999 -99.9 -99.99 -9.99
2020/02/16 22:06 CST    0.73   1.27    8  110   12  65.3  63.1 1014.4 -9.9 -9.999 -99.9 -99.99 -9.99
2020/02/16 22:12 CST    0.72   1.25    8  113   12  65.8  63.1 1014.3 -9.9 -9.999 -99.9 -99.99 -9.99
2020/02/16 22:18 CST    0.70   1.22    8  111   11  66.2  63.1 1014.3 -9.9 -9.999 -99.9 -99.99 -9.99
2020/02/16 22:24 CST    0.69   1.23    9  110   12  65.8  63.1 1014.2 -9.9 -9.999 -99.9 -99.99 -9.99
2020/02/16 22:30 CST    0.67   1.24    8  113   13  66.0  63.1 1014.0 -9.9 -9.999 -99.9 -99.99 -9.99
2020/02/16 22:36 CST    0.65   1.23    8  115   14  66.2  63.1 1014.0 -9.9 -9.999 -99.9 -99.99 -9.99
2020/02/16 22:42 CST    0.64   1.23    7  113   12  66.2  63.1 1014.0 -9.9 -9.999 -99.9 -99.99 -9.99
2020/02/16 22:48 CST    0.62   1.22    7  112   11  66.0  63.1 1014.0 -9.9 -9.999 -99.9 -99.99 -9.99
2020/02/16 22:54 CST    0.61   1.17    7  114   11  65.7  63.1 1014.1 -9.9 -9.999 -99.9 -99.99 -9.99
2020/02/16 23:00 CST    0.59   1.14    7  113   11  65.8  63.1 1014.1 -9.9 -9.999 -99.9 -99.99 -9.99
2020/02/16 23:06 CST    0.57   1.13    8  111   10  65.8  63.1 1014.2 -9.9 -9.999 -99.9 -99.99 -9.99
2020/02/16 23:12 CST    0.55   1.12    7  111   11  65.7  63.1 1014.2 -9.9 -9.999 -99.9 -99.99 -9.99
2020/02/16 23:18 CST    0.54   1.09    6  112   11  65.7  63.1 1014.3 -9.9 -9.999 -99.9 -99.99 -9.99
2020/02/16 23:24 CST    0.52   1.06    7  116   11  65.8  63.1 1014.3 -9.9 -9.999 -99.9 -99.99 -9.99
2020/02/16 23:30 CST    0.50   1.03    8  120   11  66.2  63.1 1014.2 -9.9 -9.999 -99.9 -99.99 -9.99
2020/02/16 23:36 CST    0.48   1.01    9  119   12  66.6  63.1 1014.2 -9.9 -9.999 -99.9 -99.99 -9.99
2020/02/16 23:42 CST    0.46   0.97    8  113   12  66.7  63.1 1014.1 -9.9 -9.999 -99.9 -99.99 -9.99
2020/02/16 23:48 CST    0.44   0.95    8  112   13  66.7  63.1 1014.1 -9.9 -9.999 -99.9 -99.99 -9.99
2020/02/16 23:54 CST    0.42   0.92    6  117   10  67.1  63.1 1014.0 -9.9 -9.999 -99.9 -99.99 -9.99
2020/02/17 00:00 CST    0.40   0.90    9  120   13  67.1  63.1 1013.9 -9.9 -9.999 -99.9 -99.99 -9.99
2020/02/17 00:06 CST    0.38   0.90    9  120   12  67.1  63.3 1013.8 -9.9 -9.999 -99.9 -99.99 -9.99
2020/02/17 00:12 CST    0.36   0.90    8  117   12  67.3  63.3 1013.8 -9.9 -9.999 -99.9 -99.99 -9.99
2020/02/17 00:18 CST    0.34   0.91    7  110   12  67.3  63.3 1013.8 -9.9 -9.999 -99.9 -99.99 -9.99
2020/02/17 00:24 CST    0.33   0.90    9  112   11  66.9  63.3 1013.7 -9.9 -9.999 -99.9 -99.99 -9.99
2020/02/17 00:30 CST    0.31   0.87    7  107   11  66.9  63.3 1013.7 -9.9 -9.999 -99.9 -99.99 -9.99
2020/02/17 00:36 CST    0.29   0.85    8  107   11  66.9  63.3 1013.6 -9.9 -9.999 -99.9 -99.99 -9.99
2020/02/17 00:42 CST    0.27   0.83    7  105   11  67.3  63.3 1013.6 -9.9 -9.999 -99.9 -99.99 -9.99
2020/02/17 00:48 CST    0.25   0.80    7  106   11  67.1  63.3 1013.5 -9.9 -9.999 -99.9 -99.99 -9.99
2020/02/17 00:54 CST    0.23   0.80    7  107   10  67.1  63.3 1013.4 -9.9 -9.999 -99.9 -99.99 -9.99
2020/02/17 01:00 CST    0.21   0.80    6  106   12  66.9  63.3 1013.4 -9.9 -9.999 -99.9 -99.99 -9.99
2020/02/17 01:06 CST    0.20   0.78    6  104   11  66.7  63.3 1013.3 -9.9 -9.999 -99.9 -99.99 -9.99
2020/02/17 01:12 CST    0.18   0.76    6  105   10  66.6  63.3 1013.3 -9.9 -9.999 -99.9 -99.99 -9.99
2020/02/17 01:18 CST    0.16   0.73    7  106   10  66.4  63.3 1013.2 -9.9 -9.999 -99.9 -99.99 -9.99
2020/02/17 01:24 CST    0.15   0.69    8  112   11  66.2  63.3 1013.0 -9.9 -9.999 -99.9 -99.99 -9.99
2020/02/17 01:30 CST    0.13   0.66    7  112   11  66.4  63.3 1013.0 -9.9 -9.999 -99.9 -99.99 -9.99
2020/02/17 01:36 CST    0.12   0.63    6  111    9  66.7  63.3 1012.9 -9.9 -9.999 -99.9 -99.99 -9.99
2020/02/17 01:42 CST    0.11   0.61    6  113    9  66.6  63.3 1012.9 -9.9 -9.999 -99.9 -99.99 -9.99
2020/02/17 01:48 CST    0.09   0.60    7  109   10  66.4  63.3 1012.8 -9.9 -9.999 -99.9 -99.99 -9.99
2020/02/17 01:54 CST    0.08   0.61    7  108   10  66.0  63.3 1012.8 -9.9 -9.999 -99.9 -99.99 -9.99
2020/02/17 02:00 CST    0.07   0.62    6  112    9  66.0  63.3 1012.7 -9.9 -9.999 -99.9 -99.99 -9.99
2020/02/17 02:06 CST    0.06   0.61    7  108    9  66.2  63.3 1012.6 -9.9 -9.999 -99.9 -99.99 -9.99
2020/02/17 02:12 CST    0.05   0.62    6  115    9  66.6  63.3 1012.4 -9.9 -9.999 -99.9 -99.99 -9.99
2020/02/17 02:18 CST    0.04   0.62    5  110    8  66.4  63.3 1012.3 -9.9 -9.999 -99.9 -99.99 -9.99
2020/02/17 02:24 CST    0.03   0.59    5  114    9  66.4  63.3 1012.2 -9.9 -9.999 -99.9 -99.99 -9.99
2020/02/17 02:30 CST    0.02   0.60    5  112    7  66.7  63.5 1012.1 -9.9 -9.999 -99.9 -99.99 -9.99
2020/02/17 02:36 CST    0.01   0.59    5  108    7  66.7  63.5 1012.1 -9.9 -9.999 -99.9 -99.99 -9.99
2020/02/17 02:42 CST    0.01   0.57    5  106    8  66.6  63.5 1012.0 -9.9 -9.999 -99.9 -99.99 -9.99
2020/02/17 02:48 CST   -0.00   0.55    5  116    7  66.6  63.5 1012.0 -9.9 -9.999 -99.9 -99.99 -9.99
2020/02/17 02:54 CST   -0.01   0.54    5  113    8  66.6  63.5 1011.9 -9.9 -9.999 -99.9 -99.99 -9.99
2020/02/17 03:00 CST   -0.02   0.53    6  121    9  66.7  63.5 1011.7 -9.9 -9.999 -99.9 -99.99 -9.99
2020/02/17 03:06 CST   -0.02   0.53    6  122    8  66.4  63.5 1011.7 -9.9 -9.999 -99.9 -99.99 -9.99
2020/02/17 03:12 CST   -0.03   0.52    5  123    7  66.2  63.5 1011.6 -9.9 -9.999 -99.9 -99.99 -9.99
2020/02/17 03:18 CST   -0.04   0.52    5  124    7  66.2  63.5 1011.6 -9.9 -9.999 -99.9 -99.99 -9.99
2020/02/17 03:24 CST   -0.04   0.51    4  129    7  66.4  63.5 1011.6 -9.9 -9.999 -99.9 -99.99 -9.99
2020/02/17 03:30 CST   -0.05   0.50    4  129    7  66.4  63.5 1011.7 -9.9 -9.999 -99.9 -99.99 -9.99
2020/02/17 03:36 CST   -0.05   0.50    4  119    6  66.2  63.5 1011.7 -9.9 -9.999 -99.9 -99.99 -9.99
2020/02/17 03:42 CST   -0.05   0.49    4  130    6  66.2  63.5 1011.7 -9.9 -9.999 -99.9 -99.99 -9.99
2020/02/17 03:48 CST   -0.06   0.51    3  138    6  66.2  63.5 1011.7 -9.9 -9.999 -99.9 -99.99 -9.99
2020/02/17 03:54 CST   -0.06   0.50    4  144    6  66.4  63.5 1011.6 -9.9 -9.999 -99.9 -99.99 -9.99
2020/02/17 04:00 CST   -0.06   0.47    5  144    8  66.7  63.5 1011.6 -9.9 -9.999 -99.9 -99.99 -9.99
2020/02/17 04:06 CST   -0.07   0.48    3  148    6  66.7  63.5 1011.5 -9.9 -9.999 -99.9 -99.99 -9.99
2020/02/17 04:12 CST   -0.07   0.47    4  155    6  66.9  63.7 1011.5 -9.9 -9.999 -99.9 -99.99 -9.99
2020/02/17 04:18 CST   -0.07   0.47    3  144    5  66.9  63.7 1011.4 -9.9 -9.999 -99.9 -99.99 -9.99
2020/02/17 04:24 CST   -0.07   0.49    4  157    7  66.9  63.7 1011.5 -9.9 -9.999 -99.9 -99.99 -9.99
2020/02/17 04:30 CST   -0.07   0.54    5  164    7  66.9  63.7 1011.5 -9.9 -9.999 -99.9 -99.99 -9.99
2020/02/17 04:36 CST   -0.06   0.52    5  170    7  66.7  63.7 1011.5 -9.9 -9.999 -99.9 -99.99 -9.99
2020/02/17 04:42 CST   -0.06   0.54    5  165    8  66.6  63.7 1011.5 -9.9 -9.999 -99.9 -99.99 -9.99
2020/02/17 04:48 CST   -0.06   0.57    4  170    6  66.4  63.7 1011.5 -9.9 -9.999 -99.9 -99.99 -9.99
2020/02/17 04:54 CST   -0.05   0.58    4  153    9  66.2  63.7 1011.4 -9.9 -9.999 -99.9 -99.99 -9.99
2020/02/17 05:00 CST   -0.05   0.58    4  165    8  66.0  63.7 1011.4 -9.9 -9.999 -99.9 -99.99 -9.99
2020/02/17 05:06 CST   -0.04   0.57    4  166    8  66.0  63.7 1011.4 -9.9 -9.999 -99.9 -99.99 -9.99
2020/02/17 05:12 CST   -0.04   0.59    6  167    8  66.0  63.7 1011.3 -9.9 -9.999 -99.9 -99.99 -9.99
2020/02/17 05:18 CST   -0.03   0.58    4  168    9  65.8  63.9 1011.3 -9.9 -9.999 -99.9 -99.99 -9.99
2020/02/17 05:24 CST   -0.02   0.55    4  168    8  65.8  63.9 1011.3 -9.9 -9.999 -99.9 -99.99 -9.99
2020/02/17 05:30 CST   -0.01   0.55    6  169    9  65.8  63.9 1011.5 -9.9 -9.999 -99.9 -99.99 -9.99
2020/02/17 05:36 CST   -0.00   0.55    5  175   10  66.0  63.9 1011.6 -9.9 -9.999 -99.9 -99.99 -9.99
2020/02/17 05:42 CST    0.01   0.58    6  174    9  66.2  63.9 1011.7 -9.9 -9.999 -99.9 -99.99 -9.99
2020/02/17 05:48 CST    0.02   0.61    5  168    9  66.2  63.9 1011.8 -9.9 -9.999 -99.9 -99.99 -9.99
2020/02/17 05:54 CST    0.03   0.63    4  168    9  66.2  63.9 1011.9 -9.9 -9.999 -99.9 -99.99 -9.99
2020/02/17 06:00 CST    0.04   0.66    6  172    8  66.2  63.9 1012.0 -9.9 -9.999 -99.9 -99.99 -9.99
2020/02/17 06:06 CST    0.06   0.66    4  184    8  66.4  63.9 1012.1 -9.9 -9.999 -99.9 -99.99 -9.99
2020/02/17 06:12 CST    0.07   0.64    5  198    8  66.4  63.9 1012.1 -9.9 -9.999 -99.9 -99.99 -9.99
2020/02/17 06:18 CST    0.09   0.67    4  203    7  66.4  63.9 1012.2 -9.9 -9.999 -99.9 -99.99 -9.99
2020/02/17 06:24 CST    0.10   0.67    4  202    7  66.4  63.9 1012.2 -9.9 -9.999 -99.9 -99.99 -9.99
2020/02/17 06:30 CST    0.12   0.68    3  195    6  66.4  64.0 1012.4 -9.9 -9.999 -99.9 -99.99 -9.99
2020/02/17 06:36 CST    0.13   0.70    2  216    5  66.6  64.0 1012.3 -9.9 -9.999 -99.9 -99.99 -9.99
2020/02/17 06:42 CST    0.15   0.72    3  205    5  66.7  64.0 1012.4 -9.9 -9.999 -99.9 -99.99 -9.99
2020/02/17 06:48 CST    0.17   0.74    3  211    5  66.9  64.0 1012.5 -9.9 -9.999 -99.9 -99.99 -9.99
2020/02/17 06:54 CST    0.19   0.76    3  211    4  66.9  64.0 1012.4 -9.9 -9.999 -99.9 -99.99 -9.99
2020/02/17 07:00 CST    0.20   0.77    4  211    7  66.9  64.0 1012.4 -9.9 -9.999 -99.9 -99.99 -9.99
2020/02/17 07:06 CST    0.22   0.77    5  203    7  67.1  64.0 1012.4 -9.9 -9.999 -99.9 -99.99 -9.99
2020/02/17 07:12 CST    0.24   0.79    3  197    5  67.1  64.0 1012.4 -9.9 -9.999 -99.9 -99.99 -9.99
2020/02/17 07:18 CST    0.27   0.81    3  198    5  67.1  64.0 1012.5 -9.9 -9.999 -99.9 -99.99 -9.99
2020/02/17 07:24 CST    0.29   0.82    3  199    5  67.3  64.0 1012.4 -9.9 -9.999 -99.9 -99.99 -9.99
2020/02/17 07:30 CST    0.31   0.84    4  190    6  67.3  64.0 1012.4 -9.9 -9.999 -99.9 -99.99 -9.99
2020/02/17 07:36 CST    0.33   0.83    2  194    4  67.1  64.0 1012.4 -9.9 -9.999 -99.9 -99.99 -9.99
2020/02/17 07:42 CST    0.35   0.85    4  206    6  67.1  64.0 1012.5 -9.9 -9.999 -99.9 -99.99 -9.99
2020/02/17 07:48 CST    0.38   0.88    3  203    4  67.1  64.0 1012.5 -9.9 -9.999 -99.9 -99.99 -9.99
2020/02/17 07:54 CST    0.40   0.91    1  191    4  67.1  64.0 1012.6 -9.9 -9.999 -99.9 -99.99 -9.99
2020/02/17 08:00 CST    0.42   0.94    1  186    3  66.9  64.0 1012.7 -9.9 -9.999 -99.9 -99.99 -9.99
2020/02/17 08:06 CST    0.44   0.96    2  166    3  66.7  64.0 1012.8 -9.9 -9.999 -99.9 -99.99 -9.99
2020/02/17 08:12 CST    0.47   0.98    1  158    3  66.7  64.0 1012.9 -9.9 -9.999 -99.9 -99.99 -9.99
2020/02/17 08:18 CST    0.49   1.01    1  119    3  66.7  64.0 1012.9 -9.9 -9.999 -99.9 -99.99 -9.99
2020/02/17 08:24 CST    0.51   1.04    2  141    3  66.9  64.0 1012.9 -9.9 -9.999 -99.9 -99.99 -9.99
2020/02/17 08:30 CST    0.54   1.06    2  143    3  66.9  64.0 1012.9 -9.9 -9.999 -99.9 -99.99 -9.99
2020/02/17 08:36 CST    0.56   1.06    1  143    3  66.9  64.0 1013.0 -9.9 -9.999 -99.9 -99.99 -9.99
2020/02/17 08:42 CST    0.58   1.06    2  136    4  66.9  64.0 1013.0 -9.9 -9.999 -99.9 -99.99 -9.99
2020/02/17 08:48 CST    0.60   1.08    2  139    5  66.9  64.0 1013.0 -9.9 -9.999 -99.9 -99.99 -9.99
2020/02/17 08:54 CST    0.62   1.10    3  137    4  67.1  64.0 1013.0 -9.9 -9.999 -99.9 -99.99 -9.99
2020/02/17 09:00 CST    0.64   1.14    2  133    5  67.3  64.0 1013.1 -9.9 -9.999 -99.9 -99.99 -9.99
2020/02/17 09:06 CST    0.66   1.19    3  135    4  67.3  64.0 1013.2 -9.9 -9.999 -99.9 -99.99 -9.99
2020/02/17 09:12 CST    0.68   1.22    2  142    4  67.3  64.0 1013.3 -9.9 -9.999 -99.9 -99.99 -9.99
2020/02/17 09:18 CST    0.70   1.25    2  142    4  67.5  63.9 1013.3 -9.9 -9.999 -99.9 -99.99 -9.99
2020/02/17 09:24 CST    0.72   1.28    3  138    4  67.6  63.9 1013.5 -9.9 -9.999 -99.9 -99.99 -9.99
2020/02/17 09:30 CST    0.74   1.27    3  138    5  67.6  63.9 1013.5 -9.9 -9.999 -99.9 -99.99 -9.99
2020/02/17 09:36 CST    0.76   1.27    4  147    6  67.8  63.9 1013.4 -9.9 -9.999 -99.9 -99.99 -9.99
2020/02/17 09:42 CST    0.77   1.28    4  139    7  67.8  63.9 1013.4 -9.9 -9.999 -99.9 -99.99 -9.99
2020/02/17 09:48 CST    0.79   1.29    4  139    7  67.8  63.9 1013.4 -9.9 -9.999 -99.9 -99.99 -9.99
2020/02/17 09:54 CST    0.81   1.31    4  143    8  67.8  63.9 1013.3 -9.9 -9.999 -99.9 -99.99 -9.99
2020/02/17 10:00 CST    0.82   1.35    3  161    6  67.8  63.9 1013.3 -9.9 -9.999 -99.9 -99.99 -9.99
2020/02/17 10:06 CST    0.84   1.38    5  166    8  67.6  63.9 1013.2 -9.9 -9.999 -99.9 -99.99 -9.99
2020/02/17 10:12 CST    0.85   1.39    4  152    7  67.8  63.9 1013.3 -9.9 -9.999 -99.9 -99.99 -9.99
2020/02/17 10:18 CST    0.86   1.41    4  162    8  67.8  63.9 1013.1 -9.9 -9.999 -99.9 -99.99 -9.99
2020/02/17 10:24 CST    0.88   1.40    5  161    7  67.5  63.9 1013.1 -9.9 -9.999 -99.9 -99.99 -9.99
2020/02/17 10:30 CST    0.89   1.40    4  162    8  67.5  63.9 1013.1 -9.9 -9.999 -99.9 -99.99 -9.99
2020/02/17 10:36 CST    0.90   1.40    5  155    8  67.5  63.9 1013.0 -9.9 -9.999 -99.9 -99.99 -9.99
2020/02/17 10:42 CST    0.91   1.42    4  157    8  67.6  63.9 1013.1 -9.9 -9.999 -99.9 -99.99 -9.99
2020/02/17 10:48 CST    0.93   1.43    5  155    6  67.5  63.9 1013.1 -9.9 -9.999 -99.9 -99.99 -9.99
2020/02/17 10:54 CST    0.94   1.44    4  142    6  67.3  63.9 1013.1 -9.9 -9.999 -99.9 -99.99 -9.99
2020/02/17 11:00 CST    0.95   1.43    3  155    6  67.6  63.9 1013.1 -9.9 -9.999 -99.9 -99.99 -9.99
2020/02/17 11:06 CST    0.96   1.44    5  135    6  67.5  63.9 1013.0 -9.9 -9.999 -99.9 -99.99 -9.99
2020/02/17 11:12 CST    0.97   1.45    5  142    8  67.5  64.0 1013.0 -9.9 -9.999 -99.9 -99.99 -9.99
2020/02/17 11:18 CST    0.98   1.46    4  144    7  67.3  64.0 1012.9 -9.9 -9.999 -99.9 -99.99 -9.99
2020/02/17 11:24 CST    0.99   1.49    4  134    7  67.3  64.0 1012.9 -9.9 -9.999 -99.9 -99.99 -9.99
2020/02/17 11:30 CST    1.00   1.51    5  144    8  67.5  64.0 1012.8 -9.9 -9.999 -99.9 -99.99 -9.99
2020/02/17 11:36 CST    1.01   1.53    5  150    7  67.6  64.0 1012.8 -9.9 -9.999 -99.9 -99.99 -9.99
2020/02/17 11:42 CST    1.01   1.53    5  150    7  67.5  63.9 1012.8 -9.9 -9.999 -99.9 -99.99 -9.99
2020/02/17 11:48 CST    1.02   1.55    5  151    8  68.0  63.9 1012.7 -9.9 -9.999 -99.9 -99.99 -9.99
2020/02/17 11:54 CST    1.03   1.52    6  140    9  68.2  63.9 1012.6 -9.9 -9.999 -99.9 -99.99 -9.99
2020/02/17 12:00 CST    1.04   1.49    5  157    8  68.4  63.9 1012.6 -9.9 -9.999 -99.9 -99.99 -9.99
2020/02/17 12:06 CST    1.04   1.48    5  157   10  68.2  63.9 1012.5 -9.9 -9.999 -99.9 -99.99 -9.99
2020/02/17 12:12 CST    1.05   1.49    4  147    8  68.5  63.9 1012.5 -9.9 -9.999 -99.9 -99.99 -9.99
2020/02/17 12:18 CST    1.05   1.47    7  149   10  68.4  63.9 1012.3 -9.9 -9.999 -99.9 -99.99 -9.99
2020/02/17 12:24 CST    1.06   1.48    5  147   10  68.7  63.9 1012.3 -9.9 -9.999 -99.9 -99.99 -9.99
2020/02/17 12:30 CST    1.06   1.51    6  142    8  68.7  63.9 1012.3 -9.9 -9.999 -99.9 -99.99 -9.99
2020/02/17 12:36 CST    1.07   1.52    5  146    9  68.9  63.9 1012.2 -9.9 -9.999 -99.9 -99.99 -9.99
2020/02/17 12:42 CST    1.07   1.55    6  151   11  68.9  63.9 1012.2 -9.9 -9.999 -99.9 -99.99 -9.99
2020/02/17 12:48 CST    1.07   1.57    6  142    9  69.1  63.9 1012.1 -9.9 -9.999 -99.9 -99.99 -9.99
2020/02/17 12:54 CST    1.08   1.58    8  149   12  68.9  63.9 1012.0 -9.9 -9.999 -99.9 -99.99 -9.99
2020/02/17 13:00 CST    1.08   1.58    7  151   10  69.1  63.9 1011.8 -9.9 -9.999 -99.9 -99.99 -9.99
2020/02/17 13:06 CST    1.08   1.58    5  150    9  69.6  63.9 1011.8 -9.9 -9.999 -99.9 -99.99 -9.99
2020/02/17 13:12 CST    1.09   1.57    5  145   11  69.6  63.9 1011.7 -9.9 -9.999 -99.9 -99.99 -9.99
2020/02/17 13:18 CST    1.09   1.58    7  145   11  69.8  63.9 1011.5 -9.9 -9.999 -99.9 -99.99 -9.99
2020/02/17 13:24 CST    1.09   1.59    7  138   11  70.2  63.9 1011.4 -9.9 -9.999 -99.9 -99.99 -9.99
2020/02/17 13:30 CST    1.09   1.56    6  134   11  70.2  63.9 1011.4 -9.9 -9.999 -99.9 -99.99 -9.99
2020/02/17 13:36 CST    1.10   1.59    6  134   11  70.3  63.9 1011.3 -9.9 -9.999 -99.9 -99.99 -9.99
2020/02/17 13:42 CST    1.10   1.60    7  136   11  70.2  63.9 1011.2 -9.9 -9.999 -99.9 -99.99 -9.99
2020/02/17 13:48 CST    1.10   1.61    7  139   11  70.3  63.9 1011.1 -9.9 -9.999 -99.9 -99.99 -9.99
2020/02/17 13:54 CST    1.11   1.60    6  132   11  70.3  63.9 1011.0 -9.9 -9.999 -99.9 -99.99 -9.99
2020/02/17 14:00 CST    1.11   1.58    7  137   11  70.3  63.9 1011.1 -9.9 -9.999 -99.9 -99.99 -9.99
2020/02/17 14:06 CST    1.11   1.58    7  140   11  70.5  63.9 1011.1 -9.9 -9.999 -99.9 -99.99 -9.99
2020/02/17 14:12 CST    1.12   1.58    9  135   13  70.3  63.9 1011.0 -9.9 -9.999 -99.9 -99.99 -9.99
2020/02/17 14:18 CST    1.12   1.60    7  136   13  70.9  63.9 1010.8 -9.9 -9.999 -99.9 -99.99 -9.99
2020/02/17 14:24 CST    1.12   1.61    7  133   13  70.5  63.9 1010.7 -9.9 -9.999 -99.9 -99.99 -9.99
2020/02/17 14:30 CST    1.12   1.61    8  143   11  70.7  63.9 1010.7 -9.9 -9.999 -99.9 -99.99 -9.99
2020/02/17 14:36 CST    1.13   1.60    8  134   13  70.9  63.9 1010.6 -9.9 -9.999 -99.9 -99.99 -9.99
2020/02/17 14:42 CST    1.13   1.59    7  135   14  71.2  63.9 1010.5 -9.9 -9.999 -99.9 -99.99 -9.99
2020/02/17 14:48 CST    1.13   1.59    9  128   13  70.9  63.9 1010.5 -9.9 -9.999 -99.9 -99.99 -9.99
2020/02/17 14:54 CST    1.13   1.60    8  133   13  70.7  63.9 1010.3 -9.9 -9.999 -99.9 -99.99 -9.99
2020/02/17 15:00 CST    1.13   1.59    7  135   14  70.9  63.9 1010.2 -9.9 -9.999 -99.9 -99.99 -9.99
2020/02/17 15:06 CST    1.14   1.62   11  136   15  70.2  63.9 1010.1 -9.9 -9.999 -99.9 -99.99 -9.99
2020/02/17 15:12 CST    1.14   1.63    6  134   14  70.7  63.9 1010.0 -9.9 -9.999 -99.9 -99.99 -9.99
2020/02/17 15:18 CST    1.14   1.61    8  136   11  70.5  63.9 1009.9 -9.9 -9.999 -99.9 -99.99 -9.99
2020/02/17 15:24 CST    1.14   1.61    8  138   14  70.7  63.9 1009.7 -9.9 -9.999 -99.9 -99.99 -9.99
2020/02/17 15:30 CST    1.14   1.67    8  137   14  70.7  63.9 1009.7 -9.9 -9.999 -99.9 -99.99 -9.99
2020/02/17 15:36 CST    1.13   1.52    8  136   12  70.2  63.9 1009.7 -9.9 -9.999 -99.9 -99.99 -9.99
2020/02/17 15:42 CST    1.13   1.71    9  135   13  70.2  63.9 1009.6 -9.9 -9.999 -99.9 -99.99 -9.99
2020/02/17 15:48 CST    1.13   1.72    8  134   15  70.2  63.9 1009.4 -9.9 -9.999 -99.9 -99.99 -9.99
2020/02/17 15:54 CST    1.13   1.61   11  132   14  70.2  63.7 1009.4 -9.9 -9.999 -99.9 -99.99 -9.99
2020/02/17 16:00 CST    1.12   1.55    9  134   15  70.3  63.7 1009.3 -9.9 -9.999 -99.9 -99.99 -9.99
2020/02/17 16:06 CST    1.12   1.27    7  126   13  70.0  63.7 1009.3 -9.9 -9.999 -99.9 -99.99 -9.99
2020/02/17 16:12 CST    1.12   1.73    9  127   13  69.8  63.7 1009.3 -9.9 -9.999 -99.9 -99.99 -9.99
2020/02/17 16:18 CST    1.11   1.54    7  131   13  70.0  63.7 1009.4 -9.9 -9.999 -99.9 -99.99 -9.99
2020/02/17 16:24 CST    1.11   1.70    8  131   14  70.0  63.7 1009.5 -9.9 -9.999 -99.9 -99.99 -9.99
2020/02/17 16:30 CST    1.10   1.36    8  128   14  70.2  63.7 1009.6 -9.9 -9.999 -99.9 -99.99 -9.99
2020/02/17 16:36 CST    1.10   1.79    8  125   11  70.2  63.7 1009.6 -9.9 -9.999 -99.9 -99.99 -9.99
2020/02/17 16:42 CST    1.09   1.73   10  124   14  70.0  63.7 1009.5 -9.9 -9.999 -99.9 -99.99 -9.99
2020/02/17 16:48 CST    1.09   1.63    9  124   13  70.0  63.7 1009.4 -9.9 -9.999 -99.9 -99.99 -9.99
2020/02/17 16:54 CST    1.08   1.72   10  126   13  70.0  63.7 1009.5 -9.9 -9.999 -99.9 -99.99 -9.99
2020/02/17 17:00 CST    1.07   1.71    9  126   13  69.8  63.7 1009.6 -9.9 -9.999 -99.9 -99.99 -9.99
2020/02/17 17:06 CST    1.07   1.69    8  125   12  70.0  63.7 1009.6 -9.9 -9.999 -99.9 -99.99 -9.99
2020/02/17 17:12 CST    1.06   1.82    9  127   14  69.8  63.7 1009.6 -9.9 -9.999 -99.9 -99.99 -9.99
2020/02/17 17:18 CST    1.06   1.52   10  130   14  69.8  63.7 1009.5 -9.9 -9.999 -99.9 -99.99 -9.99
2020/02/17 17:24 CST    1.05   1.68    6  132   11  70.0  63.7 1009.7 -9.9 -9.999 -99.9 -99.99 -9.99
2020/02/17 17:30 CST    1.05   1.58    7  135   12  69.8  63.7 1009.7 -9.9 -9.999 -99.9 -99.99 -9.99
2020/02/17 17:36 CST    1.04   1.76    8  127   12  69.4  63.7 1009.6 -9.9 -9.999 -99.9 -99.99 -9.99
2020/02/17 17:42 CST    1.04   1.27    8  130   11  69.3  63.7 1009.7 -9.9 -9.999 -99.9 -99.99 -9.99
2020/02/17 17:48 CST    1.03   1.64    6  132   13  68.9  63.7 1009.8 -9.9 -9.999 -99.9 -99.99 -9.99
2020/02/17 17:54 CST    1.03   1.60    7  133   12  68.7  63.7 1009.9 -9.9 -9.999 -99.9 -99.99 -9.99
2020/02/17 18:00 CST    1.02   1.63    7  132   13  68.5  63.7 1009.9 -9.9 -9.999 -99.9 -99.99 -9.99
2020/02/17 18:06 CST    1.02   1.66    7  130   12  68.7  63.7 1010.1 -9.9 -9.999 -99.9 -99.99 -9.99
2020/02/17 18:12 CST    1.01   1.51    6  129   10  68.7  63.7 1010.1 -9.9 -9.999 -99.9 -99.99 -9.99
2020/02/17 18:18 CST    1.01   1.50    7  132   11  68.4  63.7 1010.1 -9.9 -9.999 -99.9 -99.99 -9.99
2020/02/17 18:24 CST    1.00   1.57    7  129   10  68.2  63.7 1010.1 -9.9 -9.999 -99.9 -99.99 -9.99
2020/02/17 18:30 CST    1.00   1.65    6  132   10  68.2  63.7 1010.2 -9.9 -9.999 -99.9 -99.99 -9.99
2020/02/17 18:36 CST    0.99   1.60    6  127    9  68.0  63.7 1010.3 -9.9 -9.999 -99.9 -99.99 -9.99
2020/02/17 18:42 CST    0.99   1.62    6  131    9  67.8  63.7 1010.2 -9.9 -9.999 -99.9 -99.99 -9.99
2020/02/17 18:48 CST    0.98   1.59    7  127   11  67.6  63.7 1010.1 -9.9 -9.999 -99.9 -99.99 -9.99
2020/02/17 18:54 CST    0.98   1.55    8  120   11  67.5  63.7 1010.0 -9.9 -9.999 -99.9 -99.99 -9.99
2020/02/17 19:00 CST    0.98   1.53    8  123   12  67.3  63.7 1009.9 -9.9 -9.999 -99.9 -99.99 -9.99
2020/02/17 19:06 CST    0.97   1.53    8  124   12  67.3  63.7 1010.1 -9.9 -9.999 -99.9 -99.99 -9.99
2020/02/17 19:12 CST    0.97   1.52    6  118   12  67.3  63.7 1010.2 -9.9 -9.999 -99.9 -99.99 -9.99
2020/02/17 19:18 CST    0.97   1.55    6  127    8  67.3  63.7 1010.4 -9.9 -9.999 -99.9 -99.99 -9.99
2020/02/17 19:24 CST    0.97   1.56    5  124    8  67.3  63.7 1010.5 -9.9 -9.999 -99.9 -99.99 -9.99
2020/02/17 19:30 CST    0.96   1.54    6  119    9  67.3  63.7 1010.5 -9.9 -9.999 -99.9 -99.99 -9.99
2020/02/17 19:36 CST    0.96   1.55    6  123    9  67.5  63.7 1010.4 -9.9 -9.999 -99.9 -99.99 -9.99
2020/02/17 19:42 CST    0.96   1.56    7  122   11  67.5  63.7 1010.4 -9.9 -9.999 -99.9 -99.99 -9.99
2020/02/17 19:48 CST    0.96   1.56    5  129   10  67.5  63.7 1010.5 -9.9 -9.999 -99.9 -99.99 -9.99
2020/02/17 19:54 CST    0.96   1.57    6  122    9  67.6  63.7 1010.7 -9.9 -9.999 -99.9 -99.99 -9.99
2020/02/17 20:00 CST    0.95   1.55    4  125    9  67.6  63.7 1010.8 -9.9 -9.999 -99.9 -99.99 -9.99
2020/02/17 20:06 CST    0.95   1.55    6  118    9  67.5  63.7 1010.9 -9.9 -9.999 -99.9 -99.99 -9.99
2020/02/17 20:12 CST    0.95   1.52    6  120    9  67.3  63.7 1010.9 -9.9 -9.999 -99.9 -99.99 -9.99
2020/02/17 20:18 CST    0.95   1.52    5  118    7  67.3  63.7 1011.0 -9.9 -9.999 -99.9 -99.99 -9.99
2020/02/17 20:24 CST    0.95   1.51    4  119    8  67.1  63.7 1011.1 -9.9 -9.999 -99.9 -99.99 -9.99
2020/02/17 20:30 CST    0.95   1.52    5  118    8  67.1  63.7 1011.1 -9.9 -9.999 -99.9 -99.99 -9.99
2020/02/17 20:36 CST    0.94   1.53    5  118    7  66.9  63.7 1011.2 -9.9 -9.999 -99.9 -99.99 -9.99
2020/02/17 20:42 CST    0.94   1.54    4  120    7  66.9  63.7 1011.2 -9.9 -9.999 -99.9 -99.99 -9.99
2020/02/17 20:48 CST    0.94   1.54    5  118    8  66.9  63.7 1011.2 -9.9 -9.999 -99.9 -99.99 -9.99
2020/02/17 20:54 CST    0.94   1.52    6  117    8  67.1  63.7 1011.2 -9.9 -9.999 -99.9 -99.99 -9.99
2020/02/17 21:00 CST    0.93   1.52    6  115    8  66.9  63.7 1011.3 -9.9 -9.999 -99.9 -99.99 -9.99
2020/02/17 21:06 CST    0.93   1.48    5  117    8  66.9  63.7 1011.3 -9.9 -9.999 -99.9 -99.99 -9.99
2020/02/17 21:12 CST    0.93   1.47    5  113    7  66.7  63.7 1011.3 -9.9 -9.999 -99.9 -99.99 -9.99
2020/02/17 21:18 CST    0.92   1.46    6  121    8  66.9  63.7 1011.2 -9.9 -9.999 -99.9 -99.99 -9.99
2020/02/17 21:24 CST    0.91   1.46    7  121    9  67.3  63.7 1011.2 -9.9 -9.999 -99.9 -99.99 -9.99
2020/02/17 21:30 CST    0.91   1.45    7  124   10  67.6  63.7 1011.1 -9.9 -9.999 -99.9 -99.99 -9.99
2020/02/17 21:36 CST    0.90   1.45    6  120   10  67.5  63.7 1011.1 -9.9 -9.999 -99.9 -99.99 -9.99
2020/02/17 21:42 CST    0.89   1.45    6  123    9  67.3  63.7 1011.1 -9.9 -9.999 -99.9 -99.99 -9.99
2020/02/17 21:48 CST    0.89   1.45    6  125   10  67.1  63.7 1011.1 -9.9 -9.999 -99.9 -99.99 -9.99
2020/02/17 21:54 CST    0.88   1.44    7  121   10  67.1  63.7 1011.0 -9.9 -9.999 -99.9 -99.99 -9.99
2020/02/17 22:00 CST    0.87   1.42    6  119   10  67.3  63.7 1011.0 -9.9 -9.999 -99.9 -99.99 -9.99
2020/02/17 22:06 CST    0.86   1.40    8  121   11  67.3  63.7 1011.0 -9.9 -9.999 -99.9 -99.99 -9.99
2020/02/17 22:12 CST    0.85   1.39    7  119   11  67.1  63.7 1011.0 -9.9 -9.999 -99.9 -99.99 -9.99
2020/02/17 22:18 CST    0.84   1.39    8  122   11  67.3  63.7 1011.0 -9.9 -9.999 -99.9 -99.99 -9.99
2020/02/17 22:24 CST    0.82   1.39    9  124   12  67.6  63.7 1011.0 -9.9 -9.999 -99.9 -99.99 -9.99
2020/02/17 22:30 CST    0.81   1.40    8  124   11  67.8  63.7 1011.1 -9.9 -9.999 -99.9 -99.99 -9.99
2020/02/17 22:36 CST    0.80   1.38    6  126   11  68.0  63.7 1011.2 -9.9 -9.999 -99.9 -99.99 -9.99
2020/02/17 22:42 CST    0.79   1.39    6  128   10  68.0  63.7 1011.3 -9.9 -9.999 -99.9 -99.99 -9.99
2020/02/17 22:48 CST    0.77   1.37    6  127    8  68.0  63.7 1011.3 -9.9 -9.999 -99.9 -99.99 -9.99
2020/02/17 22:54 CST    0.76   1.32    7  124    9  67.8  63.7 1011.2 -9.9 -9.999 -99.9 -99.99 -9.99
2020/02/17 23:00 CST    0.74   1.30    7  128   11  67.8  63.7 1011.2 -9.9 -9.999 -99.9 -99.99 -9.99
2020/02/17 23:06 CST    0.73   1.28    7  127   10  67.5  63.7 1011.1 -9.9 -9.999 -99.9 -99.99 -9.99
2020/02/17 23:12 CST    0.71   1.28    7  129   11  67.5  63.7 1011.1 -9.9 -9.999 -99.9 -99.99 -9.99
2020/02/17 23:18 CST    0.70   1.26    6  139   11  67.5  63.7 1011.1 -9.9 -9.999 -99.9 -99.99 -9.99
2020/02/17 23:24 CST    0.68   1.25    7  136   13  67.8  63.7 1011.1 -9.9 -9.999 -99.9 -99.99 -9.99
2020/02/17 23:30 CST    0.67   1.23    7  133   13  67.8  63.7 1011.2 -9.9 -9.999 -99.9 -99.99 -9.99
2020/02/17 23:36 CST    0.65   1.21    8  136   13  67.6  63.7 1011.1 -9.9 -9.999 -99.9 -99.99 -9.99
2020/02/17 23:42 CST    0.63   1.20    7  132   11  67.8  63.9 1011.1 -9.9 -9.999 -99.9 -99.99 -9.99
2020/02/17 23:48 CST    0.61   1.18    7  133   11  67.6  63.9 1011.1 -9.9 -9.999 -99.9 -99.99 -9.99
2020/02/17 23:54 CST    0.60   1.16    7  139   11  67.8  63.9 1011.1 -9.9 -9.999 -99.9 -99.99 -9.99
2020/02/18 00:00 CST    0.58   1.13 -999 -999 -999 -99.9 -99.9 -999.9 -9.9 -9.999 -99.9 -99.99 -9.99
2020/02/18 00:06 CST    0.56   1.11    8  142   12  68.0  63.9 1011.1 -9.9 -9.999 -99.9 -99.99 -9.99
2020/02/18 00:12 CST    0.54   1.05 -999 -999 -999 -99.9 -99.9 -999.9 -9.9 -9.999 -99.9 -99.99 -9.99
2020/02/18 00:18 CST    0.52   1.02    8  140   11  68.0  63.9 1011.0 -9.9 -9.999 -99.9 -99.99 -9.99
2020/02/18 00:24 CST    0.50   0.99    7  143   11  67.8  63.9 1010.9 -9.9 -9.999 -99.9 -99.99 -9.99
2020/02/18 00:30 CST    0.48   0.99    7  142   11  68.0  63.9 1010.9 -9.9 -9.999 -99.9 -99.99 -9.99
2020/02/18 00:36 CST    0.47   0.99    7  138   12  67.8  63.9 1010.8 -9.9 -9.999 -99.9 -99.99 -9.99
2020/02/18 00:42 CST    0.45   0.99    7  143   13  67.8  63.9 1010.7 -9.9 -9.999 -99.9 -99.99 -9.99
2020/02/18 00:48 CST    0.43   0.96    9  144   13  68.0  64.0 1010.7 -9.9 -9.999 -99.9 -99.99 -9.99
2020/02/18 00:54 CST    0.41   0.93    8  142   13  68.2  64.0 1010.6 -9.9 -9.999 -99.9 -99.99 -9.99
2020/02/18 01:00 CST    0.39   0.88    9  146   16  68.4  64.0 1010.6 -9.9 -9.999 -99.9 -99.99 -9.99
2020/02/18 01:06 CST    0.36   0.83    6  147   13  68.2  64.0 1010.6 -9.9 -9.999 -99.9 -99.99 -9.99
2020/02/18 01:12 CST    0.34   0.79    7  146   12  68.0  64.0 1010.6 -9.9 -9.999 -99.9 -99.99 -9.99
2020/02/18 01:18 CST    0.32 -99.99 -999 -999 -999 -99.9 -99.9 -999.9 -9.9 -9.999 -99.9 -99.99 -9.99
2020/02/18 01:24 CST    0.30 -99.99 -999 -999 -999 -99.9 -99.9 -999.9 -9.9 -9.999 -99.9 -99.99 -9.99
2020/02/18 01:30 CST    0.29 -99.99 -999 -999 -999 -99.9 -99.9 -999.9 -9.9 -9.999 -99.9 -99.99 -9.99
2020/02/18 01:36 CST    0.27   0.72    8  141   12  68.0  64.0 1010.5 -9.9 -9.999 -99.9 -99.99 -9.99
2020/02/18 01:42 CST    0.25   0.71    6  144   13  67.8  64.0 1010.5 -9.9 -9.999 -99.9 -99.99 -9.99
2020/02/18 01:48 CST    0.23   0.72    6  142   12  67.8  64.0 1010.6 -9.9 -9.999 -99.9 -99.99 -9.99
2020/02/18 01:54 CST    0.21   0.72    5  144   11  67.8  64.2 1010.6 -9.9 -9.999 -99.9 -99.99 -9.99
2020/02/18 02:00 CST    0.19   0.69    6  142   12  68.0  64.2 1010.6 -9.9 -9.999 -99.9 -99.99 -9.99
2020/02/18 02:06 CST    0.18   0.66    7  141   10  68.0  64.2 1010.6 -9.9 -9.999 -99.9 -99.99 -9.99
2020/02/18 02:12 CST    0.16   0.63    7  145   13  67.8  64.2 1010.5 -9.9 -9.999 -99.9 -99.99 -9.99
2020/02/18 02:18 CST    0.14   0.63    7  144   12  67.8  64.2 1010.5 -9.9 -9.999 -99.9 -99.99 -9.99
2020/02/18 02:24 CST    0.13   0.61    6  152   13  67.8  64.2 1010.6 -9.9 -9.999 -99.9 -99.99 -9.99
2020/02/18 02:30 CST    0.11   0.59   10  147   13  68.0  64.2 1010.5 -9.9 -9.999 -99.9 -99.99 -9.99
2020/02/18 02:36 CST    0.10   0.60    9  151   15  68.4  64.2 1010.4 -9.9 -9.999 -99.9 -99.99 -9.99
2020/02/18 02:42 CST    0.08   0.58    9  149   13  68.2  64.2 1010.4 -9.9 -9.999 -99.9 -99.99 -9.99
2020/02/18 02:48 CST    0.07   0.58    7  150   14  68.0  64.2 1010.3 -9.9 -9.999 -99.9 -99.99 -9.99
2020/02/18 02:54 CST    0.06   0.59    6  150   13  68.0  64.2 1010.4 -9.9 -9.999 -99.9 -99.99 -9.99
2020/02/18 03:00 CST    0.05   0.57    7  150   12  68.0  64.4 1010.4 -9.9 -9.999 -99.9 -99.99 -9.99
2020/02/18 03:06 CST    0.03   0.56    8  148   11  68.0  64.4 1010.3 -9.9 -9.999 -99.9 -99.99 -9.99
2020/02/18 03:12 CST    0.02   0.54    6  149   12  68.0  64.4 1010.3 -9.9 -9.999 -99.9 -99.99 -9.99
2020/02/18 03:18 CST    0.01   0.51    8  147   13  68.2  64.4 1010.4 -9.9 -9.999 -99.9 -99.99 -9.99
2020/02/18 03:24 CST    0.00   0.51    7  145   12  68.4  64.4 1010.4 -9.9 -9.999 -99.9 -99.99 -9.99
2020/02/18 03:30 CST   -0.01   0.50    6  146   13  68.4  64.4 1010.4 -9.9 -9.999 -99.9 -99.99 -9.99
2020/02/18 03:36 CST   -0.02   0.49    7  137   11  68.5  64.4 1010.4 -9.9 -9.999 -99.9 -99.99 -9.99
2020/02/18 03:42 CST   -0.03   0.50    7  130   11  68.4  64.4 1010.3 -9.9 -9.999 -99.9 -99.99 -9.99
2020/02/18 03:48 CST   -0.04   0.48    7  134   10  68.0  64.4 1010.4 -9.9 -9.999 -99.9 -99.99 -9.99
2020/02/18 03:54 CST   -0.05   0.46    6  131   10  67.6  64.4 1010.5 -9.9 -9.999 -99.9 -99.99 -9.99
2020/02/18 04:00 CST   -0.06   0.45    5  137   10  67.8  64.4 1010.6 -9.9 -9.999 -99.9 -99.99 -9.99
2020/02/18 04:06 CST   -0.06   0.44    5  133   10  67.8  64.4 1010.6 -9.9 -9.999 -99.9 -99.99 -9.99
2020/02/18 04:12 CST   -0.07   0.46    6  135   10  67.8  64.6 1010.7 -9.9 -9.999 -99.9 -99.99 -9.99
2020/02/18 04:18 CST   -0.08   0.48    4  135    9  68.0  64.6 1010.8 -9.9 -9.999 -99.9 -99.99 -9.99
2020/02/18 04:24 CST   -0.09   0.46    4  131    8  68.0  64.6 1010.9 -9.9 -9.999 -99.9 -99.99 -9.99
2020/02/18 04:30 CST   -0.09   0.43    5  132    8  67.8  64.6 1011.0 -9.9 -9.999 -99.9 -99.99 -9.99
2020/02/18 04:36 CST   -0.10   0.42    7  134    9  67.8  64.6 1011.0 -9.9 -9.999 -99.9 -99.99 -9.99
2020/02/18 04:42 CST   -0.11   0.41    5  131   10  67.6  64.6 1011.0 -9.9 -9.999 -99.9 -99.99 -9.99
2020/02/18 04:48 CST   -0.11   0.41    4  139   11  67.6  64.6 1011.1 -9.9 -9.999 -99.9 -99.99 -9.99
2020/02/18 04:54 CST   -0.12   0.38    7  140   10  67.8  64.6 1011.0 -9.9 -9.999 -99.9 -99.99 -9.99
2020/02/18 05:00 CST   -0.12   0.37    7  146   11  68.0  64.6 1011.0 -9.9 -9.999 -99.9 -99.99 -9.99
2020/02/18 05:06 CST   -0.12   0.36    6  146   10  67.8  64.6 1011.0 -9.9 -9.999 -99.9 -99.99 -9.99
2020/02/18 05:12 CST   -0.12   0.35    5  139    8  67.6  64.8 1011.1 -9.9 -9.999 -99.9 -99.99 -9.99
2020/02/18 05:18 CST   -0.13   0.34    6  135    8  67.6  64.8 1011.1 -9.9 -9.999 -99.9 -99.99 -9.99
2020/02/18 05:24 CST   -0.13   0.33    5  134    9  67.5  64.8 1011.1 -9.9 -9.999 -99.9 -99.99 -9.99
2020/02/18 05:30 CST   -0.13   0.34    4  136    8  67.3  64.8 1011.2 -9.9 -9.999 -99.9 -99.99 -9.99
2020/02/18 05:36 CST   -0.12   0.33    5  129    9  67.1  64.8 1011.2 -9.9 -9.999 -99.9 -99.99 -9.99
2020/02/18 05:42 CST   -0.12   0.35    4  132    7  66.9  64.8 1011.3 -9.9 -9.999 -99.9 -99.99 -9.99
2020/02/18 05:48 CST   -0.12   0.35    4  129    7  66.9  64.8 1011.2 -9.9 -9.999 -99.9 -99.99 -9.99
2020/02/18 05:54 CST   -0.11   0.36    4  128    8  66.9  64.8 1011.4 -9.9 -9.999 -99.9 -99.99 -9.99
2020/02/18 06:00 CST   -0.11   0.34    4  132    7  67.3  64.8 1011.5 -9.9 -9.999 -99.9 -99.99 -9.99
2020/02/18 06:06 CST   -0.10   0.35    4  133    8  67.3  64.8 1011.6 -9.9 -9.999 -99.9 -99.99 -9.99
2020/02/18 06:12 CST   -0.10   0.35    4  122    6  67.1  64.9 1011.7 -9.9 -9.999 -99.9 -99.99 -9.99
2020/02/18 06:18 CST   -0.09   0.36    4  119    6  66.9  64.9 1011.8 -9.9 -9.999 -99.9 -99.99 -9.99
2020/02/18 06:24 CST   -0.08   0.39    5  121    6  66.7  64.9 1011.8 -9.9 -9.999 -99.9 -99.99 -9.99
2020/02/18 06:30 CST   -0.07   0.42    4  117    7  66.7  64.9 1011.8 -9.9 -9.999 -99.9 -99.99 -9.99
2020/02/18 06:36 CST   -0.06   0.42    5  121    7  66.9  64.9 1011.8 -9.9 -9.999 -99.9 -99.99 -9.99
2020/02/18 06:42 CST   -0.05   0.46    6  123    8  67.1  65.1 1011.8 -9.9 -9.999 -99.9 -99.99 -9.99
2020/02/18 06:48 CST   -0.04   0.46    5  121    8  67.5  65.1 1012.0 -9.9 -9.999 -99.9 -99.99 -9.99
2020/02/18 06:54 CST   -0.02   0.47    6  124    8  67.8  65.1 1011.9 -9.9 -9.999 -99.9 -99.99 -9.99
2020/02/18 07:00 CST   -0.01   0.47    6  126   10  68.0  65.1 1012.1 -9.9 -9.999 -99.9 -99.99 -9.99
2020/02/18 07:06 CST    0.00   0.49    7  119    9  68.2  65.1 1012.2 -9.9 -9.999 -99.9 -99.99 -9.99
2020/02/18 07:12 CST    0.02   0.50    7  122   11  68.4  65.1 1012.1 -9.9 -9.999 -99.9 -99.99 -9.99
2020/02/18 07:18 CST    0.04   0.52    6  127   10  68.5  65.1 1012.4 -9.9 -9.999 -99.9 -99.99 -9.99
2020/02/18 07:24 CST    0.05   0.55    6  123    9  68.5  65.3 1012.6 -9.9 -9.999 -99.9 -99.99 -9.99
2020/02/18 07:30 CST    0.07   0.57    6  122    9  68.5  65.3 1012.7 -9.9 -9.999 -99.9 -99.99 -9.99
2020/02/18 07:36 CST    0.09   0.60    8  124   10  68.7  65.3 1012.6 -9.9 -9.999 -99.9 -99.99 -9.99
2020/02/18 07:42 CST    0.11   0.60    8  120   11  68.7  65.3 1012.7 -9.9 -9.999 -99.9 -99.99 -9.99
2020/02/18 07:48 CST    0.13   0.61    9  123   12  68.7  65.3 1012.8 -9.9 -9.999 -99.9 -99.99 -9.99
2020/02/18 07:54 CST    0.15   0.61    9  119   11  68.7  65.5 1013.1 -9.9 -9.999 -99.9 -99.99 -9.99
2020/02/18 08:00 CST    0.17   0.60    8  119   11  68.7  65.5 1013.2 -9.9 -9.999 -99.9 -99.99 -9.99
2020/02/18 08:06 CST    0.19   0.62    7  118   11  68.9  65.5 1013.4 -9.9 -9.999 -99.9 -99.99 -9.99
2020/02/18 08:12 CST    0.21   0.65    7  113   11  68.9  65.5 1013.4 -9.9 -9.999 -99.9 -99.99 -9.99
2020/02/18 08:18 CST    0.24   0.67    6  113   10  68.5  65.5 1013.5 -9.9 -9.999 -99.9 -99.99 -9.99
2020/02/18 08:24 CST    0.26   0.71    7  114   11  68.9  65.5 1013.6 -9.9 -9.999 -99.9 -99.99 -9.99
2020/02/18 08:30 CST    0.28   0.76    6  107    9  68.7  65.5 1013.7 -9.9 -9.999 -99.9 -99.99 -9.99
2020/02/18 08:36 CST    0.31   0.77    6  106    9  68.7  65.5 1013.7 -9.9 -9.999 -99.9 -99.99 -9.99
2020/02/18 08:42 CST    0.33   0.79    7  108   11  68.4  65.7 1013.7 -9.9 -9.999 -99.9 -99.99 -9.99
2020/02/18 08:48 CST    0.36   0.82    6  108    9  68.2  65.7 1013.7 -9.9 -9.999 -99.9 -99.99 -9.99
2020/02/18 08:54 CST    0.38   0.86    7  108    9  68.4  65.7 1013.8 -9.9 -9.999 -99.9 -99.99 -9.99
2020/02/18 09:00 CST    0.41   0.89    5  105   10  68.4  65.7 1013.9 -9.9 -9.999 -99.9 -99.99 -9.99
2020/02/18 09:06 CST    0.43   0.91    8  106   12  68.9  65.7 1014.0 -9.9 -9.999 -99.9 -99.99 -9.99
2020/02/18 09:12 CST    0.46   0.94    6  108   10  69.1  65.7 1014.0 -9.9 -9.999 -99.9 -99.99 -9.99
2020/02/18 09:18 CST    0.48   0.96    8  106   11  69.1  65.7 1014.0 -9.9 -9.999 -99.9 -99.99 -9.99
2020/02/18 09:24 CST    0.50   0.97    7  109   12  69.1  65.7 1014.1 -9.9 -9.999 -99.9 -99.99 -9.99
2020/02/18 09:30 CST    0.53   0.97    8  108   12  69.3  65.7 1014.0 -9.9 -9.999 -99.9 -99.99 -9.99
2020/02/18 09:36 CST    0.55   0.97    7  107   11  69.3  65.7 1014.1 -9.9 -9.999 -99.9 -99.99 -9.99
2020/02/18 09:42 CST    0.57   0.99    7  109   12  69.1  65.7 1014.0 -9.9 -9.999 -99.9 -99.99 -9.99
2020/02/18 09:48 CST    0.60   1.02    8  109   12  68.7  65.7 1014.0 -9.9 -9.999 -99.9 -99.99 -9.99
2020/02/18 09:54 CST    0.62   1.08    7  110   10  68.9  65.7 1014.1 -9.9 -9.999 -99.9 -99.99 -9.99
2020/02/18 10:00 CST    0.64   1.13    7  111   11  69.1  65.7 1014.3 -9.9 -9.999 -99.9 -99.99 -9.99
2020/02/18 10:06 CST    0.66   1.17    8  110   11  69.3  65.7 1014.3 -9.9 -9.999 -99.9 -99.99 -9.99
2020/02/18 10:12 CST    0.68   1.19    7  111   11  69.4  65.7 1014.4 -9.9 -9.999 -99.9 -99.99 -9.99
2020/02/18 10:18 CST    0.70   1.22    8  112   13  69.4  65.7 1014.3 -9.9 -9.999 -99.9 -99.99 -9.99
2020/02/18 10:24 CST    0.72   1.25    9  107   11  69.3  65.7 1014.4 -9.9 -9.999 -99.9 -99.99 -9.99
2020/02/18 10:30 CST    0.74   1.24    9  110   11  69.3  65.7 1014.5 -9.9 -9.999 -99.9 -99.99 -9.99
2020/02/18 10:36 CST    0.75   1.24    7  110   11  70.0  65.7 1014.5 -9.9 -9.999 -99.9 -99.99 -9.99
2020/02/18 10:42 CST    0.77   1.27    8  109   12  70.3  65.7 1014.7 -9.9 -9.999 -99.9 -99.99 -9.99
2020/02/18 10:48 CST    0.79   1.31    9  106   12  70.3  65.7 1014.8 -9.9 -9.999 -99.9 -99.99 -9.99
2020/02/18 10:54 CST    0.80   1.33    7  107   10  70.9  65.7 1014.8 -9.9 -9.999 -99.9 -99.99 -9.99
2020/02/18 11:00 CST    0.82   1.34    9  112   14  70.7  65.7 1014.8 -9.9 -9.999 -99.9 -99.99 -9.99
2020/02/18 11:06 CST    0.83   1.34    6  111   12  70.9  65.5 1014.8 -9.9 -9.999 -99.9 -99.99 -9.99
2020/02/18 11:12 CST    0.85   1.34    8  107   11  70.5  65.5 1014.9 -9.9 -9.999 -99.9 -99.99 -9.99
2020/02/18 11:18 CST    0.86   1.33    7  111   11  70.7  65.5 1014.9 -9.9 -9.999 -99.9 -99.99 -9.99
2020/02/18 11:24 CST    0.88   1.34    8  113   11  70.9  65.5 1015.0 -9.9 -9.999 -99.9 -99.99 -9.99
2020/02/18 11:30 CST    0.89   1.35    9  114   13  71.4  65.5 1014.8 -9.9 -9.999 -99.9 -99.99 -9.99
2020/02/18 11:36 CST    0.91   1.35    9  115   13  71.4  65.5 1014.7 -9.9 -9.999 -99.9 -99.99 -9.99
2020/02/18 11:42 CST    0.92   1.36    8  108   14  70.7  65.7 1014.6 -9.9 -9.999 -99.9 -99.99 -9.99
2020/02/18 11:48 CST    0.93   1.38    9  111   12  70.5  65.7 1014.5 -9.9 -9.999 -99.9 -99.99 -9.99
2020/02/18 11:54 CST    0.94   1.38    8  110   11  71.1  65.7 1014.2 -9.9 -9.999 -99.9 -99.99 -9.99
2020/02/18 12:00 CST    0.95   1.38    9  112   15  71.1  65.7 1014.2 -9.9 -9.999 -99.9 -99.99 -9.99
2020/02/18 12:06 CST    0.97   1.40    9  112   11  71.4  65.7 1014.3 -9.9 -9.999 -99.9 -99.99 -9.99
2020/02/18 12:12 CST    0.98   1.42    8  112   11  72.1  65.7 1014.3 -9.9 -9.999 -99.9 -99.99 -9.99
2020/02/18 12:18 CST    0.99   1.41    7  110   13  73.0  65.7 1014.2 -9.9 -9.999 -99.9 -99.99 -9.99
2020/02/18 12:24 CST    1.00   1.41    8  111   13  72.7  65.7 1014.2 -9.9 -9.999 -99.9 -99.99 -9.99
2020/02/18 12:30 CST    1.01   1.43    9  111   13  72.0  65.7 1014.1 -9.9 -9.999 -99.9 -99.99 -9.99
2020/02/18 12:36 CST    1.02   1.43    9  108   12  72.1  65.7 1014.1 -9.9 -9.999 -99.9 -99.99 -9.99
2020/02/18 12:42 CST    1.03   1.42    8  106   12  72.7  65.7 1014.1 -9.9 -9.999 -99.9 -99.99 -9.99
2020/02/18 12:48 CST    1.03   1.45   10  102   13  72.3  65.7 1014.0 -9.9 -9.999 -99.9 -99.99 -9.99
2020/02/18 12:54 CST    1.04   1.49    9  109   13  73.0  65.7 1013.9 -9.9 -9.999 -99.9 -99.99 -9.99
2020/02/18 13:00 CST    1.05   1.52    9  104   13  73.2  65.7 1013.9 -9.9 -9.999 -99.9 -99.99 -9.99
2020/02/18 13:06 CST    1.06   1.53    9  105   13  72.9  65.7 1013.9 -9.9 -9.999 -99.9 -99.99 -9.99
2020/02/18 13:12 CST    1.06   1.53    9  105   13  73.0  65.7 1014.0 -9.9 -9.999 -99.9 -99.99 -9.99
2020/02/18 13:18 CST    1.07   1.52    8  100   13  72.1  65.7 1014.0 -9.9 -9.999 -99.9 -99.99 -9.99
2020/02/18 13:24 CST    1.08   1.51    7  103   11  71.8  65.7 1013.9 -9.9 -9.999 -99.9 -99.99 -9.99
2020/02/18 13:30 CST    1.08   1.52    6  101   10  71.4  65.7 1013.8 -9.9 -9.999 -99.9 -99.99 -9.99
2020/02/18 13:36 CST    1.09   1.53    6   97   12  71.1  65.5 1013.9 -9.9 -9.999 -99.9 -99.99 -9.99
2020/02/18 13:42 CST    1.09   1.50    6   96   10  70.7  65.3 1013.8 -9.9 -9.999 -99.9 -99.99 -9.99
2020/02/18 13:48 CST    1.10   1.56    6   91    9  70.5  65.1 1013.6 -9.9 -9.999 -99.9 -99.99 -9.99
2020/02/18 13:54 CST    1.10   1.60    7   90   10  70.0  65.1 1013.5 -9.9 -9.999 -99.9 -99.99 -9.99
2020/02/18 14:00 CST    1.11   1.57    7   91   11  70.0  64.9 1013.5 -9.9 -9.999 -99.9 -99.99 -9.99
2020/02/18 14:06 CST    1.11   1.57    7   89   10  69.8  64.9 1013.5 -9.9 -9.999 -99.9 -99.99 -9.99
2020/02/18 14:12 CST    1.12   1.52    7   80   10  69.4  64.9 1013.5 -9.9 -9.999 -99.9 -99.99 -9.99
2020/02/18 14:18 CST    1.12   1.57    7   84   10  69.1  64.9 1013.4 -9.9 -9.999 -99.9 -99.99 -9.99
2020/02/18 14:24 CST    1.12   1.73    7   80    8  69.1  64.9 1013.3 -9.9 -9.999 -99.9 -99.99 -9.99
2020/02/18 14:30 CST    1.13   1.72    8   83   10  68.7  64.8 1013.2 -9.9 -9.999 -99.9 -99.99 -9.99
2020/02/18 14:36 CST    1.13   1.55    7   84   11  68.4  64.8 1013.1 -9.9 -9.999 -99.9 -99.99 -9.99
2020/02/18 14:42 CST    1.14   1.54    8   92   11  68.2  64.8 1013.1 -9.9 -9.999 -99.9 -99.99 -9.99
2020/02/18 14:48 CST    1.14   1.48    9   92   11  68.5  64.8 1013.1 -9.9 -9.999 -99.9 -99.99 -9.99
2020/02/18 14:54 CST    1.14   1.57    9   87   12  68.5  64.8 1013.1 -9.9 -9.999 -99.9 -99.99 -9.99
2020/02/18 15:00 CST    1.15   1.58    8   85   12  68.5  64.8 1013.1 -9.9 -9.999 -99.9 -99.99 -9.99
2020/02/18 15:06 CST    1.15   1.61    8   84   10  68.2  64.6 1013.0 -9.9 -9.999 -99.9 -99.99 -9.99
2020/02/18 15:12 CST    1.16   1.63    8   88   11  68.2  64.6 1012.9 -9.9 -9.999 -99.9 -99.99 -9.99
2020/02/18 15:18 CST    1.16   1.59    9   82   12  68.2  64.6 1013.0 -9.9 -9.999 -99.9 -99.99 -9.99
2020/02/18 15:24 CST    1.16   1.52    8   81   11  67.8  64.6 1013.1 -9.9 -9.999 -99.9 -99.99 -9.99
2020/02/18 15:30 CST    1.16   1.62    9   86   12  68.2  64.6 1013.0 -9.9 -9.999 -99.9 -99.99 -9.99
2020/02/18 15:36 CST    1.17   1.57    8   84   12  68.2  64.6 1013.0 -9.9 -9.999 -99.9 -99.99 -9.99
2020/02/18 15:42 CST    1.17   1.57    9   86   12  68.4  64.6 1013.0 -9.9 -9.999 -99.9 -99.99 -9.99
2020/02/18 15:48 CST    1.17   1.59    9   85   13  68.5  64.6 1013.0 -9.9 -9.999 -99.9 -99.99 -9.99
2020/02/18 15:54 CST    1.17   1.51    9   88   13  68.7  64.6 1013.0 -9.9 -9.999 -99.9 -99.99 -9.99
2020/02/18 16:00 CST    1.17   1.52   10   86   14  68.9  64.6 1013.1 -9.9 -9.999 -99.9 -99.99 -9.99
2020/02/18 16:06 CST    1.17   1.57   11   88   15  68.9  64.4 1013.0 -9.9 -9.999 -99.9 -99.99 -9.99
2020/02/18 16:12 CST    1.17   1.56   10   88   14  68.9  64.4 1013.0 -9.9 -9.999 -99.9 -99.99 -9.99
2020/02/18 16:18 CST    1.17   1.57   10   87   14  68.7  64.4 1013.0 -9.9 -9.999 -99.9 -99.99 -9.99
2020/02/18 16:24 CST    1.17   1.60   10   84   14  68.5  64.4 1013.1 -9.9 -9.999 -99.9 -99.99 -9.99
2020/02/18 16:30 CST    1.16   1.61   10   85   13  68.7  64.4 1013.2 -9.9 -9.999 -99.9 -99.99 -9.99
2020/02/18 16:36 CST    1.16   1.60    9   85   12  68.5  64.4 1013.4 -9.9 -9.999 -99.9 -99.99 -9.99
2020/02/18 16:42 CST    1.16   1.58   10   87   13  68.5  64.4 1013.4 -9.9 -9.999 -99.9 -99.99 -9.99
2020/02/18 16:48 CST    1.15   1.58    9   86   12  68.5  64.4 1013.4 -9.9 -9.999 -99.9 -99.99 -9.99
2020/02/18 16:54 CST    1.15   1.59    8   83   12  68.2  64.4 1013.4 -9.9 -9.999 -99.9 -99.99 -9.99
2020/02/18 17:00 CST    1.14   1.64    8   82   13  68.0  64.4 1013.5 -9.9 -9.999 -99.9 -99.99 -9.99
2020/02/18 17:06 CST    1.14   1.56    9   80   13  68.0  64.2 1013.5 -9.9 -9.999 -99.9 -99.99 -9.99
2020/02/18 17:12 CST    1.13   1.52    9   79   12  68.0  64.2 1013.6 -9.9 -9.999 -99.9 -99.99 -9.99
2020/02/18 17:18 CST    1.12   1.48    8   77   13  68.2  64.2 1013.7 -9.9 -9.999 -99.9 -99.99 -9.99
2020/02/18 17:24 CST    1.12   1.55    9   79   13  68.5  64.2 1013.7 -9.9 -9.999 -99.9 -99.99 -9.99
2020/02/18 17:30 CST    1.11   1.64   10   78   13  68.4  64.2 1013.8 -9.9 -9.999 -99.9 -99.99 -9.99
2020/02/18 17:36 CST    1.11   1.65   10   77   12  68.0  64.2 1013.9 -9.9 -9.999 -99.9 -99.99 -9.99
2020/02/18 17:42 CST    1.10   1.70    8   74   11  67.6  64.2 1014.0 -9.9 -9.999 -99.9 -99.99 -9.99
2020/02/18 17:48 CST    1.09   1.67    7   73   11  67.5  64.2 1014.2 -9.9 -9.999 -99.9 -99.99 -9.99
2020/02/18 17:54 CST    1.09   1.59    9   68   11  67.1  64.2 1014.3 -9.9 -9.999 -99.9 -99.99 -9.99
2020/02/18 18:00 CST    1.08   1.59    8   66   10  66.7  64.2 1014.4 -9.9 -9.999 -99.9 -99.99 -9.99
2020/02/18 18:06 CST    1.07   1.54    8   67   10  66.6  64.2 1014.5 -9.9 -9.999 -99.9 -99.99 -9.99
2020/02/18 18:12 CST    1.07   1.63    8   65   10  66.6  64.2 1014.6 -9.9 -9.999 -99.9 -99.99 -9.99
2020/02/18 18:18 CST    1.06   1.56    7   63    9  66.4  64.2 1014.6 -9.9 -9.999 -99.9 -99.99 -9.99
2020/02/18 18:24 CST    1.05   1.61    7   67    9  66.4  64.2 1014.7 -9.9 -9.999 -99.9 -99.99 -9.99
2020/02/18 18:30 CST    1.05   1.64    7   65    9  66.6  64.2 1014.8 -9.9 -9.999 -99.9 -99.99 -9.99
2020/02/18 18:36 CST    1.04   1.62    7   66    9  66.6  64.0 1014.9 -9.9 -9.999 -99.9 -99.99 -9.99
2020/02/18 18:42 CST    1.03   1.58    7   57    7  66.2  64.0 1015.0 -9.9 -9.999 -99.9 -99.99 -9.99
2020/02/18 18:48 CST    1.03   1.51    8   52    8  66.6  64.0 1015.2 -9.9 -9.999 -99.9 -99.99 -9.99
2020/02/18 18:54 CST    1.02   1.51    7   45    8  66.9  64.0 1015.3 -9.9 -9.999 -99.9 -99.99 -9.99
2020/02/18 19:00 CST    1.02   1.56    6   32    8  66.9  64.0 1015.3 -9.9 -9.999 -99.9 -99.99 -9.99
2020/02/18 19:06 CST    1.01   1.64    6   36    7  66.7  64.0 1015.3 -9.9 -9.999 -99.9 -99.99 -9.99
2020/02/18 19:12 CST    1.01   1.54    6   43    7  66.7  64.0 1015.4 -9.9 -9.999 -99.9 -99.99 -9.99
2020/02/18 19:18 CST    1.00   1.55    5   57    7  66.6  64.0 1015.5 -9.9 -9.999 -99.9 -99.99 -9.99
2020/02/18 19:24 CST    1.00   1.53    6   54    7  66.7  64.0 1015.5 -9.9 -9.999 -99.9 -99.99 -9.99
2020/02/18 19:30 CST    1.00   1.57    5   44    7  66.7  64.0 1015.6 -9.9 -9.999 -99.9 -99.99 -9.99
2020/02/18 19:36 CST    0.99   1.56    6   53    6  66.6  64.0 1015.7 -9.9 -9.999 -99.9 -99.99 -9.99
2020/02/18 19:42 CST    0.99   1.57    6   49    6  66.2  64.0 1015.8 -9.9 -9.999 -99.9 -99.99 -9.99
2020/02/18 19:48 CST    0.98   1.56    6   37    6  66.4  64.0 1015.9 -9.9 -9.999 -99.9 -99.99 -9.99
2020/02/18 19:54 CST    0.98   1.53    6   29    7  66.6  64.0 1016.0 -9.9 -9.999 -99.9 -99.99 -9.99
2020/02/18 20:00 CST    0.98   1.53    6   34    7  66.4  64.0 1016.2 -9.9 -9.999 -99.9 -99.99 -9.99
2020/02/18 20:06 CST    0.98   1.52    7   44    8  66.6  64.0 1016.3 -9.9 -9.999 -99.9 -99.99 -9.99
2020/02/18 20:12 CST    0.97   1.52    7   41    8  66.6  64.0 1016.5 -9.9 -9.999 -99.9 -99.99 -9.99
2020/02/18 20:18 CST    0.97   1.50    8   36   10  66.7  64.0 1016.6 -9.9 -9.999 -99.9 -99.99 -9.99
2020/02/18 20:24 CST    0.97   1.49    9   25   10  67.3  64.0 1016.7 -9.9 -9.999 -99.9 -99.99 -9.99
2020/02/18 20:30 CST    0.97   1.49   10   24   11  67.6  64.0 1016.9 -9.9 -9.999 -99.9 -99.99 -9.99
2020/02/18 20:36 CST    0.97   1.49   10   34   11  67.6  64.0 1016.9 -9.9 -9.999 -99.9 -99.99 -9.99
2020/02/18 20:42 CST    0.97   1.48   10   44   11  67.8  64.0 1016.9 -9.9 -9.999 -99.9 -99.99 -9.99
2020/02/18 20:48 CST    0.97   1.49   10   44   12  67.6  64.0 1017.1 -9.9 -9.999 -99.9 -99.99 -9.99
2020/02/18 20:54 CST    0.96   1.49   10   43   11  67.6  64.2 1017.2 -9.9 -9.999 -99.9 -99.99 -9.99
2020/02/18 21:00 CST    0.96   1.49   10   44   12  67.5  64.2 1017.2 -9.9 -9.999 -99.9 -99.99 -9.99
2020/02/18 21:06 CST    0.96   1.50    9   44   11  67.1  64.2 1017.4 -9.9 -9.999 -99.9 -99.99 -9.99
2020/02/18 21:12 CST    0.96   1.52    9   36   11  66.9  64.2 1017.4 -9.9 -9.999 -99.9 -99.99 -9.99
2020/02/18 21:18 CST    0.96   1.52    9   38   11  66.9  64.2 1017.5 -9.9 -9.999 -99.9 -99.99 -9.99
2020/02/18 21:24 CST    0.96   1.50   10   37   11  66.9  64.2 1017.6 -9.9 -9.999 -99.9 -99.99 -9.99
2020/02/18 21:30 CST    0.96   1.48   10   34   12  66.6  64.2 1017.8 -9.9 -9.999 -99.9 -99.99 -9.99
2020/02/18 21:36 CST    0.96   1.48   11   33   12  66.6  64.2 1017.8 -9.9 -9.999 -99.9 -99.99 -9.99
2020/02/18 21:42 CST    0.95   1.46   11   39   12  66.7  64.2 1017.9 -9.9 -9.999 -99.9 -99.99 -9.99
2020/02/18 21:48 CST    0.95   1.47   12   40   14  66.7  64.2 1018.0 -9.9 -9.999 -99.9 -99.99 -9.99
2020/02/18 21:54 CST    0.95   1.45   11   40   14  66.6  64.2 1018.0 -9.9 -9.999 -99.9 -99.99 -9.99
2020/02/18 22:00 CST    0.94   1.47   12   42   14  66.4  64.2 1018.1 -9.9 -9.999 -99.9 -99.99 -9.99
2020/02/18 22:06 CST    0.94   1.46   11   44   14  66.6  64.2 1018.3 -9.9 -9.999 -99.9 -99.99 -9.99
2020/02/18 22:12 CST    0.94   1.42   10   42   12  66.4  64.2 1018.2 -9.9 -9.999 -99.9 -99.99 -9.99
2020/02/18 22:18 CST    0.93   1.39   11   41   13  66.2  64.2 1018.3 -9.9 -9.999 -99.9 -99.99 -9.99
2020/02/18 22:24 CST    0.92   1.37   10   41   12  66.2  64.2 1018.3 -9.9 -9.999 -99.9 -99.99 -9.99
2020/02/18 22:30 CST    0.92   1.37   11   34   13  66.2  64.2 1018.4 -9.9 -9.999 -99.9 -99.99 -9.99
2020/02/18 22:36 CST    0.91   1.38   10   26   12  66.4  64.2 1018.5 -9.9 -9.999 -99.9 -99.99 -9.99
2020/02/18 22:42 CST    0.90   1.40   11   12   13  66.9  64.2 1018.7 -9.9 -9.999 -99.9 -99.99 -9.99
2020/02/18 22:48 CST    0.89   1.45   12  342   17  61.5  64.2 1018.9 -9.9 -9.999 -99.9 -99.99 -9.99
2020/02/18 22:54 CST    0.88   1.45   14  350   18  61.0  64.2 1019.0 -9.9 -9.999 -99.9 -99.99 -9.99
2020/02/18 23:00 CST    0.87   1.41   15    1   18  60.4  64.2 1019.1 -9.9 -9.999 -99.9 -99.99 -9.99
2020/02/18 23:06 CST    0.86   1.36   14  360   18  60.4  64.2 1019.4 -9.9 -9.999 -99.9 -99.99 -9.99
2020/02/18 23:12 CST    0.85   1.58    9  346   14  60.3  64.2 1019.6 -9.9 -9.999 -99.9 -99.99 -9.99
2020/02/18 23:18 CST    0.84   0.78   11  341   19  59.4  64.2 1019.6 -9.9 -9.999 -99.9 -99.99 -9.99
2020/02/18 23:24 CST    0.83   1.21   16  356   19  59.2  64.4 1019.5 -9.9 -9.999 -99.9 -99.99 -9.99
2020/02/18 23:30 CST    0.82   1.36   14    3   18  59.0  64.4 1019.5 -9.9 -9.999 -99.9 -99.99 -9.99
2020/02/18 23:36 CST    0.80   1.36   13  360   17  58.8  64.4 1019.5 -9.9 -9.999 -99.9 -99.99 -9.99
2020/02/18 23:42 CST    0.79   1.26   11    1   16  59.0  64.4 1019.6 -9.9 -9.999 -99.9 -99.99 -9.99
2020/02/18 23:48 CST    0.78   1.21   12  356   16  59.2  64.4 1019.6 -9.9 -9.999 -99.9 -99.99 -9.99
2020/02/18 23:54 CST    0.76   1.24   12    6   17  59.0  64.4 1019.6 -9.9 -9.999 -99.9 -99.99 -9.99
2020/02/19 00:00 CST    0.75   1.12   13    7   17  58.8  64.4 1019.6 -9.9 -9.999 -99.9 -99.99 -9.99
2020/02/19 00:06 CST    0.73   1.15   14    1   17  58.6  64.4 1019.6 -9.9 -9.999 -99.9 -99.99 -9.99
2020/02/19 00:12 CST    0.72   1.09   12  359   17  58.8  64.4 1019.7 -9.9 -9.999 -99.9 -99.99 -9.99
2020/02/19 00:18 CST    0.70   1.11   11    5   15  58.6  64.4 1019.7 -9.9 -9.999 -99.9 -99.99 -9.99
2020/02/19 00:24 CST    0.68   1.08   12    6   16  59.0  64.4 1019.7 -9.9 -9.999 -99.9 -99.99 -9.99
2020/02/19 00:30 CST    0.67   1.06   15    3   18  58.6  64.4 1019.7 -9.9 -9.999 -99.9 -99.99 -9.99
2020/02/19 00:36 CST    0.65   1.05   16    6   17  58.5  64.4 1019.7 -9.9 -9.999 -99.9 -99.99 -9.99
2020/02/19 00:42 CST    0.64   1.02   16   10   19  58.5  64.4 1019.7 -9.9 -9.999 -99.9 -99.99 -9.99
2020/02/19 00:48 CST    0.62   0.99   13    7   18  58.5  64.4 1019.7 -9.9 -9.999 -99.9 -99.99 -9.99
2020/02/19 00:54 CST    0.60   0.97   14    3   18  58.3  64.4 1019.6 -9.9 -9.999 -99.9 -99.99 -9.99
2020/02/19 01:00 CST    0.58   0.94   13    4   18  58.6  64.4 1019.7 -9.9 -9.999 -99.9 -99.99 -9.99
2020/02/19 01:06 CST    0.56   0.94   14   20   17  58.5  64.4 1019.7 -9.9 -9.999 -99.9 -99.99 -9.99
2020/02/19 01:12 CST    0.55   0.71   12   14   16  58.5  64.4 1019.7 -9.9 -9.999 -99.9 -99.99 -9.99
2020/02/19 01:18 CST    0.53   0.87   15   21   17  58.3  64.4 1019.5 -9.9 -9.999 -99.9 -99.99 -9.99
2020/02/19 01:24 CST    0.51   0.87   14   24   17  58.3  64.2 1019.4 -9.9 -9.999 -99.9 -99.99 -9.99
2020/02/19 01:30 CST    0.49   0.82   14   18   17  58.3  64.2 1019.3 -9.9 -9.999 -99.9 -99.99 -9.99
2020/02/19 01:36 CST    0.47   0.82   16   18   18  58.5  64.2 1019.3 -9.9 -9.999 -99.9 -99.99 -9.99
2020/02/19 01:42 CST    0.45   0.80   14   19   17  58.5  64.2 1019.4 -9.9 -9.999 -99.9 -99.99 -9.99
2020/02/19 01:48 CST    0.43   0.77   13   14   19  58.5  64.2 1019.6 -9.9 -9.999 -99.9 -99.99 -9.99
2020/02/19 01:54 CST    0.41   0.75   16   20   18  58.5  64.2 1019.5 -9.9 -9.999 -99.9 -99.99 -9.99
2020/02/19 02:00 CST    0.39   0.74   15   18   19  58.5  64.2 1019.5 -9.9 -9.999 -99.9 -99.99 -9.99
2020/02/19 02:06 CST    0.37   0.71   14   15   18  58.3  64.2 1019.5 -9.9 -9.999 -99.9 -99.99 -9.99
2020/02/19 02:12 CST    0.35   0.72   14   17   18  58.5  64.2 1019.4 -9.9 -9.999 -99.9 -99.99 -9.99
2020/02/19 02:18 CST    0.33   0.67   14   26   16  58.3  64.2 1019.2 -9.9 -9.999 -99.9 -99.99 -9.99
2020/02/19 02:24 CST    0.31   0.66   13   23   16  58.5  64.2 1019.1 -9.9 -9.999 -99.9 -99.99 -9.99
2020/02/19 02:30 CST    0.29   0.64   14   20   16  58.6  64.2 1019.2 -9.9 -9.999 -99.9 -99.99 -9.99
2020/02/19 02:36 CST    0.27   0.64   12   21   16  58.6  64.2 1019.2 -9.9 -9.999 -99.9 -99.99 -9.99
2020/02/19 02:42 CST    0.25   0.61   11   17   16  58.6  64.2 1019.2 -9.9 -9.999 -99.9 -99.99 -9.99
2020/02/19 02:48 CST    0.23   0.59   11   19   17  58.6  64.2 1019.2 -9.9 -9.999 -99.9 -99.99 -9.99
2020/02/19 02:54 CST    0.22   0.57   11   14   15  59.0  64.2 1019.3 -9.9 -9.999 -99.9 -99.99 -9.99
2020/02/19 03:00 CST    0.20   0.55   13   15   16  58.8  64.2 1019.2 -9.9 -9.999 -99.9 -99.99 -9.99
2020/02/19 03:06 CST    0.18   0.55   14   12   17  58.6  64.2 1019.2 -9.9 -9.999 -99.9 -99.99 -9.99
2020/02/19 03:12 CST    0.16   0.50   13    8   17  58.8  64.4 1019.1 -9.9 -9.999 -99.9 -99.99 -9.99
2020/02/19 03:18 CST    0.15   0.47   12    9   15  58.6  64.4 1019.2 -9.9 -9.999 -99.9 -99.99 -9.99
2020/02/19 03:24 CST    0.13   0.47   12    7   15  58.6  64.4 1019.2 -9.9 -9.999 -99.9 -99.99 -9.99
2020/02/19 03:30 CST    0.12   0.47   12   12   15  58.3  64.4 1019.2 -9.9 -9.999 -99.9 -99.99 -9.99
2020/02/19 03:36 CST    0.10   0.46   12   14   16  58.5  64.4 1019.2 -9.9 -9.999 -99.9 -99.99 -9.99
2020/02/19 03:42 CST    0.09   0.47   11   14   15  58.5  64.4 1019.3 -9.9 -9.999 -99.9 -99.99 -9.99
2020/02/19 03:48 CST    0.07   0.43   12    9   14  58.3  64.4 1019.4 -9.9 -9.999 -99.9 -99.99 -9.99
2020/02/19 03:54 CST    0.06   0.42   12    8   15  58.5  64.6 1019.4 -9.9 -9.999 -99.9 -99.99 -9.99
2020/02/19 04:00 CST    0.05   0.44   12   17   16  58.3  64.6 1019.3 -9.9 -9.999 -99.9 -99.99 -9.99
2020/02/19 04:06 CST    0.03   0.41   12    9   15  58.3  64.6 1019.5 -9.9 -9.999 -99.9 -99.99 -9.99
2020/02/19 04:12 CST    0.02   0.40   14   11   16  58.1  64.6 1019.4 -9.9 -9.999 -99.9 -99.99 -9.99
2020/02/19 04:18 CST    0.01   0.39   13   16   15  58.3  64.6 1019.5 -9.9 -9.999 -99.9 -99.99 -9.99
2020/02/19 04:24 CST   -0.00   0.36   13   12   15  58.1  64.8 1019.5 -9.9 -9.999 -99.9 -99.99 -9.99
2020/02/19 04:30 CST   -0.02   0.36   11   11   14  58.5  64.8 1019.6 -9.9 -9.999 -99.9 -99.99 -9.99
2020/02/19 04:36 CST   -0.03   0.35   12   18   17  58.1  64.8 1019.7 -9.9 -9.999 -99.9 -99.99 -9.99
2020/02/19 04:42 CST   -0.04   0.35   12   20   16  58.1  64.8 1019.7 -9.9 -9.999 -99.9 -99.99 -9.99
2020/02/19 04:48 CST   -0.05   0.35   14   19   17  57.9  64.8 1019.7 -9.9 -9.999 -99.9 -99.99 -9.99
2020/02/19 04:54 CST   -0.06   0.34   13   15   17  57.9  64.8 1019.8 -9.9 -9.999 -99.9 -99.99 -9.99
2020/02/19 05:00 CST   -0.07   0.33   13   21   16  57.7  64.8 1019.9 -9.9 -9.999 -99.9 -99.99 -9.99
2020/02/19 05:06 CST   -0.08   0.31   12   20   16  57.9  64.9 1019.9 -9.9 -9.999 -99.9 -99.99 -9.99
2020/02/19 05:12 CST   -0.09   0.30   12   23   15  57.7  64.9 1019.9 -9.9 -9.999 -99.9 -99.99 -9.99
2020/02/19 05:18 CST   -0.10   0.28   12   20   14  57.7  64.9 1019.9 -9.9 -9.999 -99.9 -99.99 -9.99
2020/02/19 05:24 CST   -0.10   0.25   12   18   16  57.4  64.9 1020.1 -9.9 -9.999 -99.9 -99.99 -9.99
2020/02/19 05:30 CST   -0.11   0.23   12   24   15  57.2  64.9 1020.2 -9.9 -9.999 -99.9 -99.99 -9.99
2020/02/19 05:36 CST   -0.12   0.22   12   23   14  57.2  64.9 1020.2 -9.9 -9.999 -99.9 -99.99 -9.99
2020/02/19 05:42 CST   -0.12   0.22   11   18   14  57.0  64.9 1020.2 -9.9 -9.999 -99.9 -99.99 -9.99
2020/02/19 05:48 CST   -0.13   0.26   10   16   12  57.2  65.1 1020.4 -9.9 -9.999 -99.9 -99.99 -9.99
2020/02/19 05:54 CST   -0.13   0.31   11    7   13  57.0  65.1 1020.5 -9.9 -9.999 -99.9 -99.99 -9.99
2020/02/19 06:00 CST   -0.14   0.02   10    4   13  57.0  65.1 1020.5 -9.9 -9.999 -99.9 -99.99 -9.99
2020/02/19 06:06 CST   -0.14   0.27   11    5   12  57.2  65.3 1020.5 -9.9 -9.999 -99.9 -99.99 -9.99
2020/02/19 06:12 CST   -0.14   0.28   10   18   14  57.0  65.5 1020.4 -9.9 -9.999 -99.9 -99.99 -9.99
2020/02/19 06:18 CST   -0.14   0.24   12    5   14  57.0  65.5 1020.6 -9.9 -9.999 -99.9 -99.99 -9.99
2020/02/19 06:24 CST   -0.14   0.18   10    2   12  57.2  65.5 1020.6 -9.9 -9.999 -99.9 -99.99 -9.99
2020/02/19 06:30 CST   -0.14   0.22   12    7   14  56.8  65.5 1020.6 -9.9 -9.999 -99.9 -99.99 -9.99
2020/02/19 06:36 CST   -0.14   0.26   13    6   15  57.0  65.5 1020.7 -9.9 -9.999 -99.9 -99.99 -9.99
2020/02/19 06:42 CST   -0.14   0.23   12    7   14  57.0  65.5 1020.7 -9.9 -9.999 -99.9 -99.99 -9.99
2020/02/19 06:48 CST   -0.13   0.28   12   10   14  57.4  65.5 1020.9 -9.9 -9.999 -99.9 -99.99 -9.99
2020/02/19 06:54 CST   -0.13   0.25   12    5   15  57.4  65.5 1021.0 -9.9 -9.999 -99.9 -99.99 -9.99
2020/02/19 07:00 CST   -0.12   0.20   12    7   14  57.4  65.5 1021.1 -9.9 -9.999 -99.9 -99.99 -9.99
2020/02/19 07:06 CST   -0.11   0.25   11   10   14  57.6  65.5 1021.2 -9.9 -9.999 -99.9 -99.99 -9.99
2020/02/19 07:12 CST   -0.11   0.18   13    9   15  57.6  65.5 1021.3 -9.9 -9.999 -99.9 -99.99 -9.99
2020/02/19 07:18 CST   -0.10   0.16   10   18   14  57.6  65.7 1021.4 -9.9 -9.999 -99.9 -99.99 -9.99
2020/02/19 07:24 CST   -0.09   0.25   10   19   14  57.6  65.7 1021.5 -9.9 -9.999 -99.9 -99.99 -9.99
2020/02/19 07:30 CST   -0.08   0.20    8  357   12  57.6  65.7 1021.7 -9.9 -9.999 -99.9 -99.99 -9.99
2020/02/19 07:36 CST   -0.06   0.21    8  347   10  57.2  65.7 1021.8 -9.9 -9.999 -99.9 -99.99 -9.99
2020/02/19 07:42 CST   -0.05   0.24    9  353   12  57.4  65.7 1021.8 -9.9 -9.999 -99.9 -99.99 -9.99
2020/02/19 07:48 CST   -0.04   0.25    9  347   11  57.2  65.7 1021.9 -9.9 -9.999 -99.9 -99.99 -9.99
2020/02/19 07:54 CST   -0.02   0.26   10  354   12  57.0  65.7 1021.9 -9.9 -9.999 -99.9 -99.99 -9.99
2020/02/19 08:00 CST   -0.01   0.33    8  348   12  57.0  65.7 1021.9 -9.9 -9.999 -99.9 -99.99 -9.99
2020/02/19 08:06 CST    0.01   0.32    9  360   12  57.0  65.7 1022.0 -9.9 -9.999 -99.9 -99.99 -9.99
2020/02/19 08:12 CST    0.03   0.33    7  348   11  57.0  65.7 1022.1 -9.9 -9.999 -99.9 -99.99 -9.99
2020/02/19 08:18 CST    0.04   0.34    7  354   10  56.8  65.7 1022.1 -9.9 -9.999 -99.9 -99.99 -9.99
2020/02/19 08:24 CST    0.06   0.36    8  356   11  56.7  65.7 1022.2 -9.9 -9.999 -99.9 -99.99 -9.99
2020/02/19 08:30 CST    0.08   0.39    8  356   12  56.7  65.7 1022.3 -9.9 -9.999 -99.9 -99.99 -9.99
2020/02/19 08:36 CST    0.10   0.40    9  355   11  56.5  65.7 1022.4 -9.9 -9.999 -99.9 -99.99 -9.99
2020/02/19 08:42 CST    0.12   0.40    8  338   11  56.5  65.7 1022.5 -9.9 -9.999 -99.9 -99.99 -9.99
2020/02/19 08:48 CST    0.14   0.39    9  350   11  56.5  65.7 1022.4 -9.9 -9.999 -99.9 -99.99 -9.99
2020/02/19 08:54 CST    0.16   0.41   10    4   11  56.7  65.7 1022.3 -9.9 -9.999 -99.9 -99.99 -9.99
2020/02/19 09:00 CST    0.19   0.42   11    3   12  56.8  65.7 1022.2 -9.9 -9.999 -99.9 -99.99 -9.99
2020/02/19 09:06 CST    0.21   0.45    9   11   12  57.0  65.7 1022.4 -9.9 -9.999 -99.9 -99.99 -9.99
2020/02/19 09:12 CST    0.23   0.44    9    4   12  56.8  65.7 1022.4 -9.9 -9.999 -99.9 -99.99 -9.99
2020/02/19 09:18 CST    0.26   0.44    8    8   11  57.2  65.7 1022.6 -9.9 -9.999 -99.9 -99.99 -9.99
2020/02/19 09:24 CST    0.28   0.49    9    2   11  57.0  65.7 1022.6 -9.9 -9.999 -99.9 -99.99 -9.99
2020/02/19 09:30 CST    0.30   0.52    8    8   11  57.2  65.7 1022.7 -9.9 -9.999 -99.9 -99.99 -9.99
2020/02/19 09:36 CST    0.33   0.55   10    7   12  57.0  65.7 1022.7 -9.9 -9.999 -99.9 -99.99 -9.99
2020/02/19 09:42 CST    0.35   0.57   10    4   12  57.2  65.7 1022.8 -9.9 -9.999 -99.9 -99.99 -9.99
2020/02/19 09:48 CST    0.38   0.60   10    8   13  57.4  65.8 1022.9 -9.9 -9.999 -99.9 -99.99 -9.99
2020/02/19 09:54 CST    0.40   0.64   11    9   13  57.4  65.8 1022.9 -9.9 -9.999 -99.9 -99.99 -9.99
2020/02/19 10:00 CST    0.43   0.65   10   10   12  57.7  65.8 1023.0 -9.9 -9.999 -99.9 -99.99 -9.99
2020/02/19 10:06 CST    0.45   0.67   11   11   13  57.6  65.8 1022.9 -9.9 -9.999 -99.9 -99.99 -9.99
2020/02/19 10:12 CST    0.47   0.69   11   10   13  57.9  65.8 1023.0 -9.9 -9.999 -99.9 -99.99 -9.99
2020/02/19 10:18 CST    0.50   0.73   11    5   13  57.9  65.8 1023.0 -9.9 -9.999 -99.9 -99.99 -9.99
2020/02/19 10:24 CST    0.52   0.77   11   12   14  57.9  65.8 1023.0 -9.9 -9.999 -99.9 -99.99 -9.99
2020/02/19 10:30 CST    0.54   0.78   11   19   14  58.3  65.8 1023.0 -9.9 -9.999 -99.9 -99.99 -9.99
2020/02/19 10:36 CST    0.57   0.79   11   11   13  58.1  65.8 1023.0 -9.9 -9.999 -99.9 -99.99 -9.99
2020/02/19 10:42 CST    0.59   0.81    9    6   13  58.1  65.8 1023.0 -9.9 -9.999 -99.9 -99.99 -9.99
2020/02/19 10:48 CST    0.61   0.83   11    9   13  58.3  65.8 1023.0 -9.9 -9.999 -99.9 -99.99 -9.99
2020/02/19 10:54 CST    0.63   0.85   10   11   12  58.6  65.8 1022.9 -9.9 -9.999 -99.9 -99.99 -9.99
2020/02/19 11:00 CST    0.65   0.90   11   14   12  58.5  65.8 1022.8 -9.9 -9.999 -99.9 -99.99 -9.99
2020/02/19 11:06 CST    0.67   0.94   10   17   13  58.8  65.8 1022.8 -9.9 -9.999 -99.9 -99.99 -9.99
2020/02/19 11:12 CST    0.69   0.98   11   18   13  58.8  65.8 1022.8 -9.9 -9.999 -99.9 -99.99 -9.99
2020/02/19 11:18 CST    0.70   1.02   10   21   13  59.0  65.8 1022.7 -9.9 -9.999 -99.9 -99.99 -9.99
2020/02/19 11:24 CST    0.72   1.06    9   16   12  59.2  65.8 1022.7 -9.9 -9.999 -99.9 -99.99 -9.99
2020/02/19 11:30 CST    0.74   1.06    9   16   12  59.2  65.8 1022.6 -9.9 -9.999 -99.9 -99.99 -9.99
2020/02/19 11:36 CST    0.76   1.09   11   12   13  58.8  65.8 1022.6 -9.9 -9.999 -99.9 -99.99 -9.99
2020/02/19 11:42 CST    0.77   1.10   10   18   11  59.0  65.8 1022.6 -9.9 -9.999 -99.9 -99.99 -9.99
2020/02/19 11:48 CST    0.79   1.08   10   10   12  59.2  65.8 1022.3 -9.9 -9.999 -99.9 -99.99 -9.99
2020/02/19 11:54 CST    0.80   1.08   10   16   12  59.4  65.8 1022.2 -9.9 -9.999 -99.9 -99.99 -9.99
2020/02/19 12:00 CST    0.82   1.08   10   13   12  59.5  65.8 1022.2 -9.9 -9.999 -99.9 -99.99 -9.99
2020/02/19 12:06 CST    0.83   1.10   10   17   12  59.7  65.8 1022.0 -9.9 -9.999 -99.9 -99.99 -9.99
2020/02/19 12:12 CST    0.85   1.11   10   27   12  59.9  65.8 1021.9 -9.9 -9.999 -99.9 -99.99 -9.99
2020/02/19 12:18 CST    0.86   1.12   10   26   13  60.3  65.8 1021.7 -9.9 -9.999 -99.9 -99.99 -9.99
2020/02/19 12:24 CST    0.87   1.14   11   17   13  60.6  65.8 1021.6 -9.9 -9.999 -99.9 -99.99 -9.99
2020/02/19 12:30 CST    0.89   1.15   12   13   13  60.6  65.8 1021.4 -9.9 -9.999 -99.9 -99.99 -9.99
2020/02/19 12:36 CST    0.90   1.14   11   17   13  60.6  65.8 1021.4 -9.9 -9.999 -99.9 -99.99 -9.99
2020/02/19 12:42 CST    0.91   1.18   11   20   13  60.8  65.8 1021.3 -9.9 -9.999 -99.9 -99.99 -9.99
2020/02/19 12:48 CST    0.93   1.22    9   21   12  61.3  65.8 1021.3 -9.9 -9.999 -99.9 -99.99 -9.99
2020/02/19 12:54 CST    0.94   1.23   10   30   11  61.5  65.8 1021.2 -9.9 -9.999 -99.9 -99.99 -9.99
2020/02/19 13:00 CST    0.95   1.23   10   11   12  61.7  65.8 1021.2 -9.9 -9.999 -99.9 -99.99 -9.99
2020/02/19 13:06 CST    0.96   1.21   10   17   12  62.1  65.8 1021.0 -9.9 -9.999 -99.9 -99.99 -9.99
2020/02/19 13:12 CST    0.97   1.19   10   19   11  62.1  65.8 1021.0 -9.9 -9.999 -99.9 -99.99 -9.99
2020/02/19 13:18 CST    0.98   1.18    9   10   13  62.4  65.8 1020.9 -9.9 -9.999 -99.9 -99.99 -9.99
2020/02/19 13:24 CST    0.99   1.20   11   45   13  62.2  65.7 1020.9 -9.9 -9.999 -99.9 -99.99 -9.99
2020/02/19 13:30 CST    1.00   1.24    9   21   13  62.4  65.7 1020.9 -9.9 -9.999 -99.9 -99.99 -9.99
2020/02/19 13:36 CST    1.01   1.25    8   20   12  62.4  65.7 1020.8 -9.9 -9.999 -99.9 -99.99 -9.99
2020/02/19 13:42 CST    1.02   1.27    9  359   12  62.1  65.7 1020.7 -9.9 -9.999 -99.9 -99.99 -9.99
2020/02/19 13:48 CST    1.03   1.26   10    2   12  62.1  65.7 1020.5 -9.9 -9.999 -99.9 -99.99 -9.99
2020/02/19 13:54 CST    1.03   1.26   10    5   13  61.9  65.7 1020.3 -9.9 -9.999 -99.9 -99.99 -9.99
2020/02/19 14:00 CST    1.04   1.25   11  356   13  62.1  65.7 1020.3 -9.9 -9.999 -99.9 -99.99 -9.99
2020/02/19 14:06 CST    1.05   1.27   11    2   13  61.9  65.8 1020.2 -9.9 -9.999 -99.9 -99.99 -9.99
2020/02/19 14:12 CST    1.06   1.27   10  360   12  61.9  65.8 1020.1 -9.9 -9.999 -99.9 -99.99 -9.99
2020/02/19 14:18 CST    1.06   1.31    9  350   12  61.7  65.8 1020.1 -9.9 -9.999 -99.9 -99.99 -9.99
2020/02/19 14:24 CST    1.07   1.40    9    0   11  61.7  65.8 1020.0 -9.9 -9.999 -99.9 -99.99 -9.99
2020/02/19 14:30 CST    1.07   1.42    8  348   11  61.5  65.8 1019.9 -9.9 -9.999 -99.9 -99.99 -9.99
2020/02/19 14:36 CST    1.08   1.02    9  341   11  61.3  65.8 1020.0 -9.9 -9.999 -99.9 -99.99 -9.99
2020/02/19 14:42 CST    1.08 -99.99 -999 -999 -999 -99.9 -99.9 -999.9 -9.9 -9.999 -99.9 -99.99 -9.99
2020/02/19 14:48 CST    1.09 -99.99 -999 -999 -999 -99.9 -99.9 -999.9 -9.9 -9.999 -99.9 -99.99 -9.99
2020/02/19 14:54 CST    1.09 -99.99 -999 -999 -999 -99.9 -99.9 -999.9 -9.9 -9.999 -99.9 -99.99 -9.99